GFSGL_sfc_30mbdewp_000.txt.gz
Dewpoint
23 24 23 20 20 21 21 21 20 21 21 21 21 22 22 22 23 23 24 24 24 25 25 27 27 28 29 27 25 24 24 24 24 25 24 29 37 42 45 47 49 49 49
23 24 22 21 22 21 20 21 21 21 22 22 22 21 20 20 20 21 22 22 23 24 24 24 24 26 27 28 27 25 23 23 22 23 25 26 34 37 43 43 45 48 49
22 21 21 22 21 21 21 21 21 21 21 20 18 17 17 18 19 20 21 23 23 24 25 25 25 25 26 27 26 25 24 23 23 25 25 25 29 37 43 43 43 45 47
21 19 20 22 22 22 21 21 21 21 18 16 16 16 17 18 19 21 21 22 23 24 26 27 28 27 29 27 25 25 25 25 25 24 23 23 26 34 41 40 38 40 41
21 20 19 23 23 21 20 20 20 17 15 15 15 15 17 19 20 20 21 21 22 23 25 26 26 27 28 29 29 29 27 27 27 25 25 26 26 30 37 39 38 36 35
21 19 21 23 21 19 19 18 15 12 12 13 14 15 18 19 20 22 22 22 23 24 25 25 26 26 27 27 27 29 33 32 29 27 25 25 25 28 34 38 35 33 33
20 20 21 20 19 18 17 13 11 11 12 13 15 18 20 20 21 21 21 23 25 25 25 25 24 24 25 25 28 28 28 29 29 30 29 25 24 25 29 37 36 36 34
19 20 19 19 17 16 13 10 10 11 12 15 18 20 20 20 21 21 22 24 26 26 26 25 25 26 25 25 25 27 28 29 28 27 26 30 26 25 27 37 36 35 32
19 19 18 18 17 13 10 9 11 13 15 18 19 20 20 22 22 22 23 25 26 25 25 25 25 26 27 26 26 26 26 29 32 31 30 29 28 31 36 35 35 33 29
18 18 18 17 13 10 9 10 12 14 17 20 21 21 22 23 23 23 25 26 25 25 25 26 26 26 27 27 27 27 27 26 28 32 33 33 31 31 35 37 36 34 30
19 18 17 14 11 9 9 11 12 17 21 23 23 24 24 25 26 25 26 28 27 27 26 26 28 28 28 28 28 29 27 25 26 29 29 31 31 30 30 36 37 36 30
18 17 15 13 11 8 10 12 16 19 21 21 22 23 25 27 30 30 29 28 29 28 27 27 29 28 27 30 30 29 28 27 28 32 29 30 31 30 29 32 36 38 34
17 16 15 13 9 9 11 15 17 17 18 20 21 22 24 26 27 27 26 26 27 26 26 26 25 25 26 28 30 30 29 28 29 28 31 28 30 31 32 31 31 31 30
17 17 15 10 10 11 14 15 17 17 19 19 20 23 23 24 25 26 25 26 27 27 27 25 27 27 30 31 31 30 30 30 29 28 27 29 30 31 31 30 27 25 23
18 17 12 10 13 14 15 17 18 18 20 21 22 23 23 22 24 27 26 25 25 25 25 27 26 24 25 28 30 30 29 30 30 32 32 30 28 28 26 28 26 25 22
18 16 13 15 15 15 16 17 18 18 19 20 22 24 24 25 27 27 25 24 24 24 25 23 23 24 23 23 25 28 30 30 30 31 30 28 27 26 25 26 26 25 21
20 17 14 15 15 15 17 17 17 18 18 21 23 23 24 25 26 24 25 26 21 22 22 22 22 21 21 21 22 24 24 26 28 27 27 27 27 25 25 25 24 25 22
18 16 17 16 16 17 18 18 18 18 18 18 21 23 23 25 26 24 24 22 19 21 20 20 21 21 20 21 21 21 22 24 24 24 24 24 24 24 24 23 23 21 20
13 14 17 17 17 18 18 18 17 17 17 18 19 19 23 24 26 26 25 21 19 18 17 21 22 18 20 21 21 21 21 21 23 23 23 23 24 23 22 22 22 22 21
12 15 15 16 17 16 16 17 17 17 17 18 18 18 20 21 20 21 23 24 23 23 24 21 20 22 20 19 19 21 22 21 21 21 22 23 23 22 20 19 19 19 19
14 14 16 16 16 16 15 15 17 17 17 18 18 18 19 19 19 19 20 21 21 21 23 24 25 21 19 19 19 19 19 18 18 19 20 21 22 20 21 20 19 17 12
16 16 16 16 15 16 15 15 17 17 16 17 18 18 19 18 18 18 19 19 20 21 23 23 23 23 23 23 22 20 19 18 18 18 18 17 17 17 17 16 15 14 13
18 17 16 15 16 15 15 15 15 17 17 16 17 17 17 17 16 16 17 18 18 18 19 19 20 21 23 23 23 23 21 21 21 21 20 20 19 18 17 15 14 13 12
18 17 15 15 15 15 15 15 15 14 16 16 16 16 16 16 16 16 16 16 17 17 17 17 17 17 19 20 22 21 21 21 20 21 22 21 20 19 18 17 16 14 12
19 17 16 15 15 15 14 14 14 14 14 15 15 15 15 15 15 15 15 15 15 15 15 15 16 16 16 16 16 17 18 19 20 19 19 18 17 16 14 13 12 12 10
18 16 16 15 14 14 14 13 13 13 13 13 14 14 14 13 13 13 13 13 13 12 11 11 11 10 11 11 12 12 13 14 16 17 17 16 15 14 13 12 11 10 9

GFSGL_sfc_30mbdewp_003.txt.gz
Dewpoint
26 28 27 25 23 22 22 21 22 22 21 20 20 19 20 21 21 22 22 24 24 25 26 27 28 28 28 28 30 31 31 28 25 26 26 26 28 41 45 46 48 48 50
26 26 25 24 22 21 22 22 22 22 21 21 20 20 20 19 19 19 20 20 21 21 23 24 25 24 26 28 28 30 30 30 26 24 25 25 27 30 32 39 43 47 48
24 24 23 21 23 23 22 22 22 21 20 20 19 19 18 18 18 19 18 19 20 22 23 24 25 26 26 26 27 27 29 28 27 25 24 25 25 27 31 36 42 43 45
22 21 23 25 23 22 23 23 22 21 20 19 18 17 17 18 18 17 18 19 21 22 24 25 25 25 26 27 28 29 28 28 28 26 25 25 26 25 28 33 40 41 42
24 26 28 25 24 24 23 22 21 20 19 17 15 16 17 17 16 17 19 20 22 23 23 24 25 26 26 27 27 28 30 30 28 27 27 27 27 25 25 31 38 38 37
29 29 25 24 23 22 21 21 19 17 14 15 15 16 16 16 18 23 23 22 23 23 24 24 23 24 25 26 27 27 27 28 30 32 30 28 28 28 27 27 35 35 34
28 26 24 22 21 21 20 18 15 14 14 15 15 15 17 19 21 23 23 23 24 25 24 25 25 23 25 25 26 27 28 27 27 26 28 31 29 28 28 26 34 36 35
28 24 20 20 20 20 18 15 13 14 14 15 16 17 19 20 22 24 24 24 25 25 25 25 26 26 26 26 27 29 27 28 28 27 26 27 30 31 33 32 33 36 33
20 19 19 19 20 17 14 14 14 14 15 15 17 20 21 22 23 24 24 27 26 26 25 25 26 27 27 26 29 28 29 30 30 29 31 30 27 27 29 31 36 34 29
19 19 19 19 17 14 14 14 14 14 14 19 21 22 22 23 25 26 27 28 28 28 27 27 26 26 28 29 29 28 27 27 26 27 31 32 33 28 27 30 34 35 31
19 20 19 17 15 15 14 13 13 15 20 24 25 24 24 26 27 29 30 29 28 26 25 27 30 30 30 29 28 29 28 28 26 26 30 33 32 31 30 32 34 36 32
19 19 17 16 17 14 12 12 14 17 20 22 23 23 24 25 26 25 27 29 28 27 26 26 27 30 30 28 27 27 30 30 29 30 30 30 30 32 31 30 33 36 37
19 18 17 18 17 13 11 14 15 15 20 21 22 21 22 24 24 24 27 27 29 28 28 28 27 26 26 26 26 26 26 29 29 28 29 28 29 29 30 29 35 33 32
18 18 19 18 14 13 14 14 14 18 20 19 20 21 22 22 22 24 26 27 25 26 27 26 26 27 28 29 31 31 28 30 29 28 28 32 29 29 30 29 30 29 27
19 20 19 17 15 15 16 15 16 20 22 20 21 23 23 21 22 27 27 25 26 26 26 28 27 25 26 27 30 31 30 30 29 29 28 28 32 32 32 31 28 28 24
21 22 21 16 16 17 15 15 18 20 21 20 24 25 24 23 26 27 28 28 26 27 27 25 24 23 23 25 28 29 29 28 28 29 31 31 30 30 28 29 28 28 24
24 22 18 17 17 16 16 16 19 21 20 21 25 24 24 25 27 28 28 26 25 24 24 23 22 23 23 23 24 25 28 30 32 31 31 31 30 28 26 26 28 26 25
24 20 17 18 18 18 17 18 20 19 20 20 22 24 23 25 26 26 27 24 24 24 23 23 23 22 21 22 23 24 26 26 27 28 29 30 29 27 26 25 26 25 25
19 17 19 18 19 18 18 17 17 19 18 20 20 19 21 25 26 22 23 24 23 24 24 23 23 22 22 22 22 23 25 25 26 26 26 26 27 27 27 27 25 25 24
17 17 17 17 18 16 16 15 16 18 18 20 19 18 20 22 21 21 21 22 22 23 24 24 25 25 24 22 24 23 23 24 25 24 26 25 25 26 24 24 23 21 21
18 17 18 18 17 16 15 15 16 18 18 19 20 20 20 20 19 19 19 19 20 21 22 24 24 25 25 25 24 22 22 23 23 24 23 23 22 21 23 23 23 18 16
19 19 18 17 16 16 15 15 17 19 19 19 19 20 20 19 18 18 18 19 19 20 20 22 22 23 24 24 24 23 23 22 21 21 22 22 22 22 21 19 18 18 18
21 20 19 17 17 16 16 16 17 16 18 19 19 18 18 17 17 17 17 18 18 18 19 19 18 20 23 24 24 24 22 22 24 25 23 22 22 21 21 19 18 17 15
20 19 18 17 17 15 16 16 17 17 16 18 17 17 17 17 16 16 16 17 17 17 16 17 17 16 17 18 20 22 23 25 25 24 24 23 21 21 20 19 18 17 18
21 19 18 17 17 16 16 16 16 16 16 16 16 16 16 16 15 15 15 16 15 15 14 13 13 13 13 13 14 15 17 20 22 22 22 21 21 20 19 19 18 17 16
21 19 17 17 17 16 15 15 15 14 16 14 15 15 15 15 14 14 14 12 11 11 11 11 10 8 7 7 8 10 13 16 18 20 19 17 16 15 14 13 12 11 10

GFSGL_sfc_30mbdewp_006.txt.gz
Dewpoint
32 33 32 31 30 27 26 25 25 27 26 26 26 25 24 24 24 25 25 26 25 25 26 26 26 27 27 27 28 28 28 29 28 29 31 31 29 28 31 43 46 48 48
31 31 30 29 27 26 25 26 27 27 27 26 25 24 23 23 23 23 23 23 23 23 23 24 24 24 25 26 27 27 27 28 29 29 30 31 29 28 25 28 40 45 45
27 28 27 27 26 25 28 28 28 27 25 25 24 24 23 23 22 22 22 22 22 22 22 23 23 24 24 25 26 27 27 27 28 29 29 30 29 29 27 26 27 38 44
25 25 26 24 25 28 28 27 27 26 26 25 24 23 22 21 20 20 20 20 21 21 24 25 26 26 26 26 26 26 26 27 29 30 30 29 29 28 27 26 25 35 39
24 23 26 32 31 31 27 27 26 26 25 24 21 20 21 21 19 18 21 22 22 23 24 24 24 24 25 26 26 26 26 26 27 30 30 30 29 28 27 28 28 30 39
27 35 38 35 29 26 26 25 24 24 22 20 20 20 21 19 19 22 26 24 24 23 24 24 24 24 24 24 25 26 26 25 25 27 29 31 31 31 29 29 29 30 31
38 36 34 33 26 24 24 23 23 21 20 20 20 20 20 21 22 25 25 24 24 24 24 24 24 23 24 24 25 26 27 27 27 25 23 23 27 29 32 32 33 32 34
35 35 33 24 22 22 23 22 19 19 19 19 20 20 21 23 24 24 24 24 24 25 25 25 25 25 25 25 25 27 29 29 28 28 27 25 24 25 27 30 33 34 35
31 24 21 21 21 22 20 18 19 19 18 19 20 22 22 23 24 24 25 25 28 28 27 26 26 26 25 26 28 28 28 27 28 31 30 29 27 26 26 26 29 30 31
23 21 20 21 20 18 18 18 18 18 17 21 21 24 25 23 24 25 26 28 28 28 27 28 28 30 29 29 28 28 26 26 28 26 27 29 31 30 31 31 27 27 30
20 19 20 20 17 18 18 18 16 17 20 21 25 24 23 24 25 26 25 27 28 26 26 26 25 25 26 29 30 28 27 27 26 26 26 26 27 31 31 30 29 27 29
20 20 20 19 19 19 18 16 17 18 20 22 22 23 22 22 24 23 26 27 28 27 26 27 28 29 28 29 29 29 29 30 30 29 29 27 29 29 29 31 30 29 32
19 20 20 21 21 18 16 17 18 18 20 21 23 20 20 22 23 22 23 25 28 26 27 27 28 28 27 28 28 28 27 27 26 26 27 28 28 28 33 31 33 34 35
20 21 21 21 20 18 18 18 18 19 21 23 20 21 21 22 21 22 25 27 29 28 28 28 27 27 28 28 29 29 29 28 26 25 28 27 30 31 31 32 31 31 29
22 22 23 23 20 18 19 18 18 21 22 21 22 24 23 21 22 26 28 28 28 28 28 25 25 25 24 24 26 30 28 28 27 29 29 28 29 29 31 32 29 28 26
24 24 24 22 20 20 19 19 20 21 22 22 22 26 25 24 26 27 28 29 28 28 25 24 22 22 24 24 25 29 29 29 28 28 28 29 30 31 30 29 29 27 26
25 24 22 20 20 20 20 18 19 21 21 22 23 24 23 24 27 26 27 28 29 25 22 21 22 23 21 23 24 26 26 30 30 29 28 30 29 28 28 28 28 27 25
24 24 23 21 21 21 20 20 20 20 20 20 22 21 22 24 26 25 25 25 23 23 25 23 23 21 23 22 23 24 26 27 27 28 30 30 27 26 26 27 26 25 24
24 22 20 20 21 20 20 19 19 19 20 20 21 19 20 24 24 23 22 21 21 21 23 22 24 24 22 23 23 23 25 25 26 27 27 27 29 28 27 27 26 25 24
22 18 18 20 21 20 19 18 18 19 20 21 20 19 20 21 19 19 19 19 19 19 21 22 22 24 24 23 22 22 22 23 24 24 24 24 25 26 25 24 24 23 23
23 22 20 21 20 20 19 17 19 19 20 20 20 21 20 19 18 18 18 17 18 18 18 19 20 22 23 24 23 22 22 22 22 23 23 23 21 20 21 20 19 19 18
23 22 22 21 20 20 19 20 19 18 19 20 20 20 20 19 17 17 17 17 17 18 18 17 17 17 19 20 23 22 22 22 22 22 22 22 21 20 19 20 19 19 19
24 23 22 21 21 18 19 18 18 19 18 20 19 18 18 17 17 16 16 17 16 15 16 16 14 14 15 17 18 20 22 23 23 24 22 21 20 20 20 18 18 18 18
25 23 22 20 20 20 19 17 18 17 18 18 18 18 17 16 16 15 16 16 16 15 15 13 13 11 11 12 14 16 18 23 24 24 24 22 21 20 19 19 19 19 18
24 23 22 21 20 19 18 17 18 17 18 17 17 17 17 16 15 15 15 16 15 14 12 11 10 8 8 8 10 11 14 16 20 22 21 21 20 20 19 18 17 17 17
25 24 22 20 20 19 17 17 16 16 17 17 16 16 16 16 15 15 15 13 12 12 12 11 10 8 7 7 8 9 10 13 15 16 18 17 16 15 14 13 11 12 12

GFSGL_sfc_30mbdewp_009.txt.gz
Dewpoint
33 34 33 31 28 28 28 27 28 29 32 34 34 34 31 26 26 27 27 27 26 26 27 26 27 27 28 28 29 28 27 27 26 27 27 28 31 31 32 32 36 41 45
32 32 31 29 27 26 25 27 29 30 31 29 29 28 26 27 27 26 25 25 24 24 24 25 25 24 24 25 26 25 26 26 26 25 26 27 29 32 32 31 30 37 40
29 29 28 27 26 26 28 28 29 29 29 29 26 26 26 26 25 25 23 22 22 23 23 23 23 23 23 24 25 26 26 27 28 28 28 30 31 31 31 31 30 31 41
27 27 26 26 26 29 29 30 29 28 28 27 26 26 26 24 22 22 22 21 22 23 24 25 25 25 25 25 24 25 25 26 26 26 26 26 28 30 31 30 29 28 28
26 29 34 34 32 31 31 29 29 27 26 26 26 23 22 23 20 20 24 25 24 24 24 25 24 25 25 26 24 23 23 24 24 24 24 24 24 27 29 30 29 28 29
37 36 36 35 34 32 28 27 26 24 25 22 21 22 21 21 21 27 26 25 25 24 23 23 23 24 24 25 25 25 25 24 23 23 23 23 24 26 32 32 32 30 27
37 36 37 37 36 35 30 25 24 24 21 20 20 20 20 23 24 24 24 23 23 23 23 24 24 24 24 24 24 25 25 26 26 25 24 23 23 24 26 29 29 31 31
37 36 36 36 34 24 23 23 21 20 19 18 19 21 22 22 24 25 25 25 25 24 25 25 25 25 25 25 25 24 24 25 26 26 27 27 26 25 24 24 25 30 32
36 35 31 23 22 22 21 19 18 18 17 19 21 20 22 24 25 25 25 26 26 26 27 27 27 28 27 27 27 27 26 26 26 28 29 29 29 29 27 26 25 25 25
23 21 22 21 21 19 18 18 18 18 17 20 20 24 23 24 24 25 24 26 26 25 25 25 25 25 27 28 28 28 26 26 26 27 27 28 29 30 32 29 29 26 25
21 21 21 20 19 20 20 19 16 17 19 20 21 21 23 24 23 23 23 26 26 25 25 25 25 26 27 28 29 28 27 27 27 27 26 26 27 27 28 30 32 31 28
21 21 21 21 21 20 17 17 18 19 19 19 21 21 21 21 23 24 24 24 25 25 25 26 26 27 28 28 29 29 29 29 28 28 27 27 27 27 27 30 30 30 31
21 22 22 22 22 19 18 18 19 19 20 20 21 20 20 22 24 23 22 24 26 27 28 28 28 29 28 28 28 28 29 28 26 25 25 27 27 27 28 30 32 33 32
22 22 23 23 21 19 19 20 19 19 19 19 20 21 22 23 21 22 25 27 29 28 27 27 24 24 26 25 25 27 28 29 27 25 25 26 29 29 29 30 30 31 30
23 24 25 23 20 20 21 20 20 19 20 21 22 24 23 20 22 26 27 27 28 27 26 22 22 21 21 23 24 25 28 27 28 26 26 26 28 28 29 31 31 30 27
24 24 24 21 21 20 20 20 20 21 22 21 23 26 23 23 26 25 26 27 27 28 24 21 20 21 20 21 22 24 27 28 27 27 27 28 28 28 28 29 29 28 27
23 24 23 23 20 20 21 20 19 20 21 21 24 23 23 24 25 24 25 25 25 24 22 22 20 20 21 22 22 23 24 26 29 28 28 28 29 29 28 28 28 27 25
23 23 22 19 18 19 19 20 18 18 17 19 23 22 22 24 23 22 22 20 19 19 22 21 21 21 21 21 21 22 23 24 26 27 29 28 27 27 27 26 26 24 24
24 23 20 18 19 19 20 17 17 18 17 20 20 18 21 21 21 20 19 18 17 17 18 19 21 21 22 21 21 21 21 23 22 23 24 25 26 25 26 25 24 23 23
23 20 19 20 20 20 19 16 18 17 18 20 19 18 19 18 17 17 17 16 16 15 16 16 17 18 19 21 21 21 20 21 22 22 21 21 22 24 24 24 23 22 22
22 23 22 21 22 20 18 18 19 17 17 19 19 19 19 17 16 16 15 14 14 14 14 14 14 15 16 16 17 21 21 20 21 21 20 20 20 20 20 19 19 19 19
22 24 22 20 22 17 17 18 17 18 17 18 18 18 18 16 16 15 15 14 14 14 14 13 12 12 13 14 15 16 20 21 21 21 20 20 19 19 19 19 19 19 19
20 23 22 20 20 19 20 16 17 17 16 17 18 16 16 15 14 15 14 14 14 13 13 12 10 10 11 12 13 15 16 20 21 22 21 20 19 19 18 18 18 17 17
22 22 22 22 19 18 17 18 17 17 17 15 16 16 15 14 14 14 14 15 14 12 12 10 8 7 8 10 11 13 15 18 22 22 21 20 19 18 18 18 18 18 17
24 23 22 21 19 19 15 16 16 15 17 16 14 15 15 14 14 14 14 15 13 12 11 9 8 7 6 7 9 9 11 14 15 17 17 17 17 17 17 17 17 17 17
25 24 22 20 20 17 15 15 14 13 16 15 15 14 14 14 14 13 13 12 12 11 10 9 8 7 6 7 8 8 9 10 11 11 13 12 11 10 10 10 9 11 12

GFSGL_sfc_30mbdewp_012.txt.gz
Dewpoint
34 33 34 30 31 30 29 30 31 34 36 37 37 35 34 33 33 32 29 28 28 27 27 27 27 27 27 28 29 28 28 28 26 26 27 28 29 30 31 33 34 34 36
31 33 32 29 28 27 28 29 31 32 32 32 33 32 31 31 29 28 27 26 25 24 24 24 24 24 24 25 26 25 25 25 25 23 24 26 27 30 32 33 34 34 35
30 31 29 27 26 26 28 29 30 30 29 29 29 28 28 28 27 26 25 23 23 23 23 24 24 25 25 25 26 26 27 27 27 26 26 27 28 31 29 30 32 33 33
28 29 28 28 27 30 29 30 29 29 28 28 27 27 27 27 24 24 23 23 24 24 24 24 24 24 24 24 24 23 23 23 23 24 24 24 25 26 28 28 29 31 31
33 34 35 34 32 31 30 31 32 30 27 27 27 24 23 23 21 23 26 25 24 24 24 24 24 24 24 25 25 24 24 23 22 21 21 21 22 22 24 26 28 31 32
36 37 37 37 36 36 36 34 31 30 26 23 21 21 20 21 23 25 25 24 23 22 22 23 23 23 23 24 25 26 26 25 23 22 22 21 22 23 24 26 28 29 28
38 38 38 38 37 34 35 32 30 24 21 19 18 19 21 22 22 24 25 24 24 24 24 24 24 24 24 24 25 26 26 26 26 25 23 23 24 24 24 26 26 27 26
38 37 36 36 36 34 29 23 20 19 18 18 19 20 20 21 25 25 25 25 25 25 25 25 25 24 25 25 25 26 25 25 25 25 25 26 26 27 26 25 25 25 26
38 34 27 24 22 21 19 18 18 18 17 17 19 22 23 23 24 25 24 24 24 26 25 25 25 25 25 25 25 27 27 26 26 27 27 26 27 28 28 27 26 26 24
22 22 22 22 20 19 20 19 18 17 18 21 22 22 22 22 23 23 22 24 25 24 24 24 24 25 25 27 27 26 25 26 26 26 26 27 28 29 29 31 29 25 25
22 23 22 21 21 21 18 18 18 18 20 19 19 19 20 22 22 22 23 25 25 24 24 24 24 26 27 28 29 27 26 26 26 27 26 26 27 27 28 29 31 30 27
22 22 22 22 22 19 18 18 19 19 19 17 17 18 20 20 22 24 23 22 24 26 25 26 27 28 25 27 28 29 29 29 28 27 26 25 25 25 27 27 29 31 30
22 22 23 24 22 19 19 20 20 19 18 18 19 19 20 21 23 23 22 24 26 27 27 27 24 24 23 24 26 26 27 27 27 26 24 24 26 26 27 28 28 29 30
22 23 25 23 21 20 21 20 19 18 18 20 20 20 22 21 20 21 25 26 27 28 25 24 22 22 22 24 25 26 26 27 28 26 25 25 26 29 28 28 28 27 29
23 24 24 22 21 20 21 21 20 21 21 21 20 23 20 19 21 26 25 26 27 26 26 23 19 19 20 21 22 24 26 27 25 27 26 25 26 27 28 28 28 28 27
23 22 23 22 22 19 20 20 21 22 21 21 23 22 22 23 25 23 24 25 24 25 22 20 19 19 19 20 20 21 22 25 27 25 24 24 25 26 27 28 28 28 27
23 23 23 22 20 19 19 19 17 18 19 21 22 20 20 23 23 22 23 22 22 20 20 19 18 19 19 19 20 20 20 23 26 27 26 26 26 27 28 28 27 27 25
22 22 22 22 19 19 18 17 16 17 16 18 21 19 19 22 21 21 19 18 17 17 17 17 17 17 18 20 19 19 20 21 21 23 25 26 26 26 26 26 26 24 23
23 21 20 21 21 19 18 16 17 16 16 18 18 17 19 19 20 18 16 15 15 14 15 15 15 15 16 17 19 19 19 20 20 20 20 21 24 24 24 23 23 23 23
22 23 23 21 21 22 19 17 18 16 16 17 17 17 17 16 15 15 14 13 12 13 13 13 13 13 14 14 16 18 19 19 19 19 19 19 20 21 22 22 22 22 21
21 23 22 20 21 20 16 18 17 15 16 16 17 17 17 15 14 14 14 13 12 11 11 11 11 11 12 12 13 14 18 19 19 19 18 18 18 18 18 18 18 19 19
21 22 23 21 21 19 18 16 16 16 15 15 16 16 16 14 14 13 13 12 13 12 12 10 9 10 10 11 12 13 15 17 19 19 18 18 17 17 18 17 17 17 17
20 23 22 21 19 17 16 17 16 16 14 15 15 14 14 13 13 13 13 13 11 11 10 9 7 8 9 10 11 13 13 15 19 19 18 17 17 17 17 17 16 16 16
22 22 22 21 18 18 16 17 15 16 16 14 14 13 13 13 13 13 13 13 12 10 9 8 7 6 7 8 10 11 13 14 15 17 17 17 16 16 16 17 17 16 16
23 23 21 20 19 17 15 14 13 15 15 13 13 14 14 13 12 13 13 13 11 9 8 8 7 6 6 7 8 8 8 10 10 12 12 11 12 13 13 14 15 16 16
25 24 22 20 20 16 14 14 12 14 14 14 12 12 12 12 12 12 12 10 10 10 8 7 7 6 7 7 7 6 6 7 8 8 9 9 8 7 8 9 9 9 10

GFSGL_sfc_30mbdewp_015.txt.gz
Dewpoint
35 31 32 33 32 32 31 32 34 37 37 38 34 34 36 36 35 34 32 31 29 28 27 26 25 27 27 27 28 28 28 27 25 24 26 26 26 26 27 29 31 33 36
32 31 32 33 30 29 30 31 33 33 33 31 32 33 33 33 32 29 28 27 25 24 24 24 24 24 24 26 27 27 26 25 25 23 23 24 25 26 30 31 31 32 33
31 30 30 30 28 28 29 31 31 31 30 30 30 30 29 29 28 27 26 24 24 24 25 25 25 25 25 25 25 25 26 26 26 25 25 26 27 27 27 28 29 29 30
34 31 29 29 27 29 30 31 30 30 30 29 28 28 28 25 23 23 22 23 24 24 24 24 24 24 23 23 23 23 23 23 23 23 22 22 23 24 25 24 25 28 29
38 36 34 33 33 35 37 36 35 33 32 29 26 23 22 21 20 23 25 24 23 23 23 23 23 23 23 23 23 24 24 24 23 22 22 22 21 22 22 23 24 26 29
39 37 37 38 38 37 36 33 33 34 30 23 20 20 19 21 23 24 24 25 25 23 22 23 24 24 24 24 25 25 26 25 24 24 24 23 22 23 23 23 24 24 23
37 38 38 37 37 37 36 35 33 25 20 19 19 20 20 21 23 25 25 25 25 24 24 24 24 24 24 25 25 25 26 26 27 26 25 24 23 23 24 24 24 24 24
38 38 36 36 36 32 26 22 19 19 18 18 18 20 22 22 23 23 24 25 24 24 25 25 25 25 25 24 23 25 25 24 24 24 26 25 26 25 25 26 24 24 25
31 24 23 23 22 21 19 19 19 17 17 18 21 22 21 20 22 22 23 23 23 23 24 25 25 24 25 25 25 25 25 25 25 27 27 26 26 27 27 27 26 25 23
23 23 22 21 21 20 20 18 18 18 19 21 21 20 20 20 21 23 23 23 24 24 24 23 23 23 25 26 26 26 25 24 24 25 26 27 29 28 29 28 28 24 24
23 22 22 22 22 20 19 18 19 20 20 18 17 17 19 20 21 23 23 23 24 23 23 23 25 26 26 27 28 26 26 28 26 26 26 27 27 28 27 28 30 29 26
22 22 23 23 21 20 19 20 20 19 18 16 17 18 19 20 22 23 22 22 24 25 24 27 26 24 22 22 23 24 26 27 28 27 26 26 27 27 26 27 28 30 30
23 23 24 24 22 20 20 20 19 18 18 18 19 19 19 21 21 21 21 24 24 26 28 27 27 21 22 22 24 25 26 26 25 25 24 25 26 27 27 27 29 29 31
23 24 25 22 21 20 20 21 20 20 19 20 20 19 20 19 19 21 25 24 26 27 25 25 24 20 21 23 24 24 25 26 26 26 25 27 27 28 27 28 27 27 27
23 23 23 23 22 20 19 20 22 22 21 20 19 22 19 18 20 24 24 24 25 25 23 21 19 18 18 19 19 20 21 22 24 24 24 25 25 26 27 28 27 27 26
23 22 23 23 22 19 19 20 21 21 21 20 21 21 20 21 23 23 23 24 24 22 21 19 17 16 17 18 18 18 19 20 22 25 25 24 24 24 24 26 27 27 26
23 23 22 22 22 19 19 19 16 17 19 20 20 19 18 20 22 22 21 22 21 18 17 16 15 14 15 16 18 18 18 19 21 22 24 26 26 26 26 26 26 27 26
22 21 21 21 21 21 20 19 15 17 15 16 18 18 18 20 21 20 19 17 15 15 15 15 14 14 14 14 15 17 18 18 18 19 20 21 22 23 23 24 25 24 24
22 21 22 22 21 20 20 18 17 17 14 15 16 15 18 18 18 17 16 13 12 12 12 12 13 12 12 12 13 14 18 18 17 17 17 18 20 23 23 22 22 23 23
22 22 23 22 20 21 17 17 17 16 15 15 14 15 16 16 13 13 14 13 11 11 11 11 11 11 11 11 11 12 15 17 17 16 16 16 17 18 19 20 19 20 20
22 22 23 22 21 21 17 17 16 16 14 14 15 16 16 14 13 13 12 11 11 10 9 9 9 9 10 11 11 11 12 15 17 16 15 16 15 16 17 17 18 18 18
24 21 23 22 20 19 17 16 16 15 14 14 13 14 14 13 13 13 12 10 11 10 10 9 8 8 9 9 9 10 11 13 15 15 15 15 15 15 15 15 15 15 16
23 22 22 21 20 18 17 16 15 15 14 13 13 12 12 12 12 12 12 12 11 9 9 8 7 6 7 8 9 10 10 11 12 14 14 14 15 14 14 14 15 15 14
21 21 21 21 19 18 15 15 14 14 14 13 13 12 12 12 11 12 12 11 9 8 8 7 7 6 6 6 7 8 8 10 10 11 11 12 12 13 13 14 14 15 15
23 22 22 20 19 18 15 14 13 12 13 12 12 12 13 12 11 11 11 11 10 8 7 6 6 6 6 5 5 5 5 6 7 8 9 8 8 9 9 10 11 13 14
24 24 24 21 19 17 15 14 12 11 13 13 11 11 11 11 11 10 10 9 9 8 7 7 6 5 6 7 6 5 3 3 5 5 6 6 5 5 5 5 6 6 7

GFSGL_sfc_30mbdewp_018.txt.gz
Dewpoint
35 33 33 33 33 32 31 33 34 37 38 38 36 35 34 32 35 36 36 33 31 29 28 26 25 26 26 27 29 29 28 28 25 24 24 25 26 27 26 28 29 30 34
34 34 33 33 31 30 31 32 35 34 34 32 33 32 33 33 32 30 29 28 26 24 24 24 23 24 25 26 27 27 27 27 26 24 24 25 24 26 26 27 30 32 30
36 36 35 33 29 28 30 31 32 31 33 35 33 31 29 29 28 26 24 23 23 23 24 24 25 25 24 24 24 24 24 24 24 24 22 23 25 27 26 27 28 28 29
38 38 36 33 31 33 36 36 36 36 35 34 32 29 26 23 22 21 21 23 24 24 24 23 23 22 22 21 22 22 22 22 22 22 22 22 22 23 24 24 24 26 27
38 38 36 35 37 38 37 36 35 34 33 30 24 22 22 21 20 24 24 23 22 22 24 24 22 23 22 22 23 23 24 24 23 23 23 23 22 24 23 23 23 23 25
37 36 37 39 37 37 36 35 34 34 35 24 20 20 20 21 23 25 26 26 26 25 24 23 23 23 24 24 24 25 26 25 24 24 23 22 22 22 23 23 23 22 21
37 37 38 38 37 37 37 35 34 25 20 19 19 19 20 22 23 22 22 24 25 25 25 24 23 23 24 23 23 22 23 25 25 26 24 24 24 24 23 23 23 23 22
34 32 30 29 30 28 22 20 20 19 18 18 19 21 22 20 21 21 22 23 23 23 23 23 24 24 23 23 23 25 26 25 24 24 23 24 24 25 25 25 24 24 25
31 28 24 23 21 20 20 20 19 18 18 19 21 21 20 20 21 22 23 23 23 23 23 24 25 24 23 23 24 25 24 24 25 26 27 28 28 27 27 27 25 24 22
24 23 23 22 22 21 19 19 18 19 20 21 20 19 19 19 21 23 23 22 23 24 22 22 23 24 25 26 26 26 24 26 27 27 27 27 28 30 30 29 28 24 23
24 24 23 23 22 20 20 19 20 20 20 17 17 18 19 20 21 22 21 22 24 23 24 23 24 27 25 22 22 23 23 23 24 27 27 27 27 27 28 29 30 28 25
24 23 24 24 23 20 20 20 20 19 18 18 17 18 19 19 22 21 21 22 24 24 23 25 27 27 21 22 23 24 26 26 25 25 25 25 26 26 26 27 28 30 30
23 23 24 24 22 21 19 19 20 20 19 19 19 19 19 20 20 20 21 22 24 25 26 26 24 22 21 21 22 23 24 24 24 24 23 24 26 27 29 29 29 30 30
23 23 23 23 22 21 19 20 20 20 19 20 19 19 19 18 18 20 23 24 24 25 25 24 21 19 18 20 21 21 22 22 22 24 24 25 27 27 27 28 27 27 26
23 23 23 23 23 23 19 20 21 21 21 20 19 20 19 18 19 23 23 22 24 23 23 21 17 15 15 16 18 18 19 19 20 22 24 24 24 25 26 27 27 27 25
24 23 23 22 22 21 20 20 21 20 21 19 19 19 19 18 21 22 22 22 22 21 19 16 15 14 13 14 15 16 17 18 18 21 23 25 24 24 24 24 25 25 25
23 22 21 22 21 21 21 20 18 17 19 18 19 18 17 17 20 20 20 20 20 17 15 14 13 13 12 13 14 15 16 18 19 18 19 20 23 24 25 25 25 26 25
22 20 20 21 21 20 19 19 18 16 15 14 16 17 16 17 19 19 17 15 13 13 13 13 12 12 12 12 12 12 13 17 16 16 16 17 19 23 22 22 23 22 23
23 22 21 21 21 19 20 17 16 16 15 13 13 14 15 15 16 16 15 12 11 11 11 11 11 11 11 11 11 11 11 15 16 14 15 15 17 20 20 21 21 22 23
23 22 22 22 21 20 20 17 16 16 15 13 13 14 14 14 12 12 12 11 10 10 10 10 10 10 10 10 11 11 11 12 15 14 13 14 14 16 16 17 17 17 18
24 23 22 22 21 19 18 16 16 15 14 13 13 13 14 13 12 12 11 10 9 9 8 8 8 9 9 9 9 9 10 11 12 14 13 13 13 14 15 15 15 16 17
25 23 22 22 20 19 18 16 15 14 14 13 12 12 12 12 12 11 11 10 10 9 9 8 7 7 8 8 8 8 9 10 10 11 12 12 13 13 13 14 14 14 15
23 21 21 21 20 18 17 15 14 13 13 12 12 12 11 11 11 11 10 9 8 8 7 7 7 6 6 6 7 8 7 7 8 9 10 10 12 12 12 13 13 13 12
22 21 20 20 18 18 16 15 13 13 12 12 11 11 11 11 11 11 11 10 8 7 7 6 6 6 6 5 6 6 5 7 7 7 7 8 9 10 11 12 13 13 12
23 23 22 21 20 18 17 15 13 11 11 12 11 10 11 11 11 10 9 9 8 7 7 6 5 6 6 6 5 3 2 3 4 4 6 5 5 5 6 7 7 9 10
24 24 24 22 20 18 16 15 14 11 11 11 11 10 10 10 10 9 10 10 9 8 7 6 6 4 5 7 6 4 1 1 3 3 3 4 3 3 3 4 4 5 5

GFSGL_sfc_30mbdewp_021.txt.gz
Dewpoint
40 36 37 37 37 34 32 33 35 38 39 38 35 34 34 35 35 35 35 34 33 31 30 29 27 27 25 24 23 22 21 21 20 18 20 21 23 23 23 23 25 25 25
37 38 37 37 34 30 32 33 35 34 36 37 37 37 37 35 32 30 29 28 26 24 23 22 21 20 21 23 23 23 23 22 21 20 19 20 21 23 23 23 23 22 22
37 38 38 35 31 33 36 37 37 38 37 37 36 33 32 31 26 24 22 21 21 21 22 22 23 24 22 21 20 20 19 19 19 19 18 18 19 20 20 22 23 23 23
37 38 37 34 36 37 37 36 36 36 34 33 33 28 25 22 20 20 21 22 22 22 22 22 21 21 20 19 18 18 18 19 19 19 18 19 19 20 21 21 21 23 24
38 37 37 36 38 36 36 36 35 34 34 35 33 24 23 21 19 22 21 22 22 21 21 21 21 21 22 22 21 20 20 20 21 22 21 19 19 20 21 21 21 21 22
36 37 38 39 39 38 37 36 35 36 34 25 22 21 21 19 23 24 23 20 20 20 20 20 20 21 21 22 24 24 24 23 23 23 21 20 19 19 20 21 23 22 21
35 36 36 34 33 33 31 24 22 22 22 20 20 20 21 22 21 21 21 20 21 20 20 20 20 20 22 22 23 23 25 25 25 23 22 21 20 20 21 22 23 23 21
30 31 27 25 24 23 22 22 21 20 20 20 20 21 20 18 20 21 22 22 22 21 21 21 21 22 23 23 23 24 23 24 25 25 25 23 23 22 22 22 23 24 24
26 24 24 23 22 22 21 20 20 20 20 20 20 19 18 19 19 21 23 22 21 21 22 22 21 22 23 26 26 26 24 23 23 25 26 27 27 26 26 27 26 25 23
26 26 25 24 23 22 21 21 20 20 19 20 19 19 20 20 21 22 21 21 21 20 21 21 23 24 26 27 27 25 22 21 20 21 21 23 27 27 28 30 28 25 22
27 25 24 24 23 22 21 20 19 19 21 22 22 22 21 20 22 21 20 21 21 22 21 21 24 27 28 28 22 22 23 24 24 24 23 23 26 27 26 28 28 28 25
24 24 24 24 22 20 20 18 19 20 21 21 21 20 19 21 20 19 20 21 21 23 22 24 27 24 21 21 22 23 23 24 25 25 25 25 25 25 26 27 28 28 28
24 23 22 22 21 21 20 19 19 20 19 19 19 18 17 18 18 18 22 21 20 23 25 25 24 21 19 20 21 22 22 22 23 23 24 24 24 26 28 29 31 30 31
23 22 22 23 23 23 22 20 20 20 19 18 18 17 17 16 16 18 20 20 20 24 24 24 22 18 17 17 18 20 21 22 21 22 24 25 27 26 26 27 27 27 27
24 23 23 23 23 23 22 21 21 22 20 19 17 17 17 16 17 22 21 21 22 22 22 20 18 16 15 16 16 17 19 20 20 21 23 24 25 25 25 25 26 26 25
23 23 23 23 23 22 20 20 21 21 21 20 18 17 17 17 19 20 20 20 21 20 18 16 15 15 15 15 15 15 17 18 19 20 21 23 24 25 25 26 26 24 23
24 24 23 22 22 21 20 20 18 18 19 18 18 17 16 15 19 19 18 18 18 17 15 14 14 14 14 14 14 15 15 17 18 18 19 21 23 24 24 25 26 26 25
24 22 23 23 23 22 21 20 18 18 17 16 16 16 15 15 16 16 15 15 13 14 13 13 13 13 13 13 13 14 15 17 17 17 18 19 20 22 22 23 24 25 25
25 24 24 23 24 22 21 20 19 18 17 16 14 14 15 14 15 14 14 12 11 11 11 11 12 12 12 13 13 14 15 16 16 17 17 18 19 20 20 20 21 22 23
25 24 24 24 24 22 21 20 18 17 16 15 14 13 13 12 12 12 12 11 11 10 10 10 11 11 11 12 13 13 14 15 15 16 17 18 18 19 19 20 20 21 21
25 25 24 24 23 21 21 19 18 17 16 15 15 14 13 12 11 11 11 10 9 7 7 8 9 10 10 11 12 12 12 13 14 14 16 17 17 17 19 19 20 20 20
23 23 23 23 22 22 20 19 18 17 16 15 14 14 12 12 11 11 10 8 7 7 7 8 8 8 9 9 10 11 12 12 13 13 15 16 17 17 18 18 18 19 18
24 23 23 22 22 20 20 19 18 17 16 16 14 13 13 12 12 11 10 9 7 7 7 7 7 7 7 8 9 9 10 10 11 11 12 15 16 16 17 17 16 16 16
24 23 22 22 22 21 20 20 18 15 14 15 15 14 13 13 12 11 10 10 9 8 8 7 7 7 7 7 7 7 7 9 9 10 10 12 12 13 14 15 15 15 15
24 24 24 24 23 22 20 20 19 17 15 15 15 14 13 13 12 11 12 12 10 9 8 7 7 6 7 7 7 6 4 4 6 7 10 10 10 10 10 11 13 13 13
24 24 24 24 23 22 21 20 19 18 16 16 15 14 14 12 11 12 12 12 11 10 7 7 7 6 6 5 5 6 5 4 4 4 9 9 8 8 9 9 9 11 11

GFSGL_sfc_30mbdewp_024.txt.gz
Dewpoint
39 39 39 39 38 35 32 33 36 37 37 36 37 38 38 38 37 36 35 34 32 30 29 27 25 23 22 21 20 21 20 19 17 16 16 17 19 21 22 23 24 24 24
35 36 37 37 36 33 33 34 35 35 38 39 38 37 35 33 34 33 29 27 25 23 23 22 20 18 19 20 19 20 19 19 18 17 16 17 18 20 21 22 22 21 21
32 33 34 35 34 34 35 36 36 36 37 36 34 32 29 28 26 24 23 23 23 22 21 20 20 20 21 20 20 19 18 16 16 16 15 16 17 17 18 19 20 21 21
34 33 32 35 35 36 36 36 35 33 32 32 32 33 33 28 24 22 21 21 21 20 21 21 21 21 21 20 19 17 17 17 16 16 16 15 16 17 18 18 19 20 21
32 31 32 37 38 39 38 35 35 32 31 31 29 25 24 23 18 22 21 19 19 18 18 19 19 20 21 22 21 19 18 17 17 17 20 20 19 18 18 19 20 20 22
31 30 33 34 34 34 33 30 26 23 22 22 22 22 21 20 23 22 22 18 17 18 19 18 18 19 19 22 23 24 24 22 21 22 21 21 20 21 21 21 22 23 22
30 29 28 27 26 25 23 22 22 22 21 20 20 21 21 21 21 21 21 19 19 20 20 19 17 16 20 21 23 24 24 24 25 23 22 22 20 21 21 22 23 24 23
28 28 26 26 23 23 22 22 22 20 20 20 20 20 20 18 20 20 21 20 20 20 19 18 18 21 21 23 24 23 24 24 25 26 26 24 22 24 24 24 24 24 25
28 28 28 26 24 23 23 21 20 20 19 19 19 19 19 20 21 21 22 20 20 20 20 21 22 23 23 26 26 25 23 23 21 23 25 26 26 26 26 27 27 25 24
26 26 25 24 24 23 20 20 19 19 18 20 21 21 21 20 21 21 20 20 22 22 21 22 23 23 26 27 27 27 24 20 21 24 23 25 25 26 28 28 28 25 25
24 25 24 24 22 20 20 19 18 19 21 24 25 23 23 22 21 21 19 20 22 21 20 21 22 28 25 23 22 22 22 24 23 24 25 27 28 26 26 27 28 29 26
25 25 24 22 20 19 20 19 19 19 20 24 23 23 22 23 19 19 18 21 23 23 21 23 26 25 22 21 21 23 22 23 25 26 26 27 26 26 27 29 29 29 30
24 23 22 21 21 21 21 20 20 19 21 22 21 20 19 18 16 18 20 21 20 21 24 24 25 23 21 21 22 20 23 25 23 23 24 24 26 26 27 27 29 30 29
24 22 22 21 22 21 21 20 19 20 21 19 18 18 17 16 15 18 20 20 20 23 23 24 23 23 24 23 22 22 24 23 23 23 23 25 27 28 27 28 27 28 28
23 23 22 22 23 22 21 20 20 21 21 19 17 16 16 16 17 19 20 19 20 20 21 22 21 20 20 20 19 19 20 21 22 23 24 25 26 27 27 26 25 26 26
23 22 22 24 24 22 20 20 21 21 20 20 18 17 16 15 17 18 18 19 19 19 20 18 18 18 18 18 17 18 20 20 20 21 23 24 24 26 26 29 28 25 25
25 25 25 24 23 21 21 20 19 19 19 19 18 16 15 14 16 16 16 17 18 18 16 16 16 16 16 17 17 17 18 19 20 20 20 21 22 23 24 26 26 28 27
27 25 25 24 23 23 22 21 20 19 19 16 16 16 15 14 15 14 14 15 15 15 15 15 14 15 15 15 16 16 17 18 18 18 19 20 21 21 22 22 23 24 26
26 24 24 24 24 24 23 21 20 19 18 15 14 13 13 14 16 16 14 13 13 13 13 13 14 14 14 14 15 16 17 18 18 18 19 19 20 21 20 20 22 24 23
23 24 25 23 23 23 21 20 19 18 17 15 14 13 12 13 13 13 13 13 12 12 12 11 11 12 13 13 14 15 14 16 16 17 18 19 20 22 20 20 21 22 23
22 22 24 22 23 22 21 20 19 18 17 15 14 15 13 14 13 12 11 10 8 7 8 8 9 10 11 12 12 13 13 14 15 16 17 18 20 20 20 20 21 22 22
21 23 22 22 22 22 21 20 19 19 18 15 15 14 14 15 13 12 11 9 9 8 8 8 9 9 10 11 12 12 12 12 13 13 15 17 19 19 20 20 19 20 20
23 22 21 21 22 21 22 21 20 20 19 17 15 14 12 13 13 12 11 10 9 9 8 8 8 8 8 10 10 11 11 11 13 13 13 14 15 16 17 18 17 18 17
22 24 22 21 23 22 21 21 21 20 19 18 16 15 13 13 12 12 13 13 10 9 9 9 8 7 7 8 9 8 7 9 11 11 12 12 12 13 14 14 15 15 16
24 24 24 23 24 24 23 22 21 21 20 19 17 16 14 13 11 11 12 12 11 9 8 8 8 7 7 6 7 7 8 7 7 8 12 10 10 11 12 12 13 13 14
23 22 23 23 23 24 23 23 22 22 20 20 18 16 15 13 12 12 11 11 10 9 7 7 7 7 7 6 5 6 6 7 7 7 10 9 9 9 10 10 10 11 11

GFSGL_sfc_30mbdewp_030.txt.gz
Dewpoint
29 29 31 33 34 35 37 37 36 37 37 37 36 36 37 37 35 35 34 34 34 34 32 30 30 30 29 28 27 30 31 32 32 31 29 26 24 23 23 25 27 27 28
28 30 31 33 33 35 35 36 38 36 35 37 37 37 37 34 32 30 29 28 27 26 25 24 23 22 23 23 24 24 24 24 22 20 22 22 22 23 24 24 24 23 24
29 30 30 31 34 37 38 38 39 39 38 37 36 34 34 32 27 24 23 24 24 23 22 22 22 22 22 23 23 23 23 22 22 21 20 20 20 21 20 22 23 23 24
28 29 30 34 33 36 36 37 37 38 37 34 31 27 25 23 21 22 23 24 24 22 22 22 22 21 21 22 22 22 20 19 19 20 20 20 21 21 21 21 22 24 24
28 29 29 31 31 32 32 33 31 29 28 27 26 23 23 22 21 23 23 22 22 21 20 21 21 22 24 23 19 20 20 20 21 21 20 21 22 22 22 24 24 24 26
26 28 28 28 30 30 30 30 29 27 27 24 22 22 22 20 24 24 24 23 22 21 20 20 22 24 21 23 23 26 27 25 22 21 20 20 20 21 22 23 24 25 24
24 25 26 26 29 29 29 27 25 25 22 22 21 22 22 24 25 25 24 23 22 21 22 22 22 21 23 22 23 23 25 26 27 25 25 23 22 22 22 22 22 23 24
23 21 22 25 25 27 27 24 23 21 21 21 21 25 24 22 26 26 24 22 21 22 21 20 20 23 23 24 24 25 27 26 25 26 29 27 25 25 27 29 31 30 30
24 22 22 23 25 25 24 23 21 20 21 20 22 24 23 23 24 25 25 23 22 21 20 21 22 21 22 23 26 25 25 25 25 25 31 30 30 30 29 27 25 24 22
25 27 30 28 25 25 24 20 20 20 19 27 26 26 26 24 26 26 25 26 24 22 21 21 21 22 26 27 26 25 23 23 23 25 26 24 24 24 25 27 28 26 24
31 31 29 27 27 25 21 20 20 20 24 27 28 29 27 26 25 23 25 25 24 22 21 20 21 24 26 23 24 24 23 24 25 25 24 24 25 26 27 28 29 30 27
29 30 32 31 27 25 20 21 21 20 23 26 26 25 25 25 23 22 27 22 18 21 21 21 25 21 24 25 25 25 26 26 24 23 24 26 27 29 30 31 33 33 33
32 34 32 29 28 25 21 20 20 21 23 24 24 22 22 21 21 21 17 16 18 19 20 22 21 24 26 26 26 27 27 25 25 25 25 27 27 27 30 31 31 30 30
30 32 31 30 29 23 24 23 21 22 23 22 21 20 20 19 18 18 17 20 19 19 20 20 22 24 22 24 25 26 26 27 25 25 25 27 29 28 27 32 29 27 26
32 31 31 29 26 25 24 23 22 24 22 22 21 20 19 18 18 15 16 19 19 20 20 22 21 20 19 20 21 21 24 24 23 24 24 25 25 25 25 26 29 30 27
30 31 31 30 26 25 24 24 24 23 24 23 21 20 19 18 16 14 15 15 15 20 20 19 18 18 17 18 20 19 21 22 22 23 23 23 24 23 24 25 26 26 26
29 27 27 26 25 26 26 25 25 25 26 27 25 23 20 18 16 15 15 14 17 22 18 18 17 17 18 18 18 18 19 21 22 21 23 23 23 23 25 25 24 25 24
30 27 28 28 25 26 27 26 25 25 24 24 24 25 23 17 14 18 18 16 15 17 17 17 16 17 17 15 15 16 17 20 19 20 21 22 22 23 24 23 24 24 25
27 26 25 23 25 27 27 25 26 25 24 23 23 24 25 15 14 20 17 16 15 14 14 16 17 16 15 15 16 16 17 18 17 17 18 19 22 24 22 24 23 24 24
26 24 23 23 25 26 26 27 25 25 24 23 22 23 18 14 15 17 17 17 15 12 12 12 13 13 14 14 14 15 15 15 15 15 15 17 19 22 21 23 23 23 23
24 23 23 24 26 26 27 25 26 25 24 23 22 22 14 13 17 16 17 16 15 12 11 12 14 13 13 13 13 13 13 13 12 13 14 15 17 18 20 22 21 21 22
23 23 25 25 26 26 26 26 23 24 24 24 24 22 18 17 22 15 17 17 16 13 13 12 13 12 12 12 13 12 11 10 10 11 11 13 16 15 17 17 19 17 18
24 25 25 25 26 26 26 25 26 25 25 24 22 22 22 20 18 16 16 18 17 15 13 12 12 11 11 11 12 12 10 10 10 11 10 11 15 13 15 15 14 17 14
22 24 24 25 26 26 26 26 27 25 25 25 24 24 22 21 18 16 15 17 16 16 13 12 12 10 10 10 10 10 9 9 9 10 10 12 13 13 13 13 12 15 13
25 26 26 25 25 25 25 25 25 26 26 25 25 25 23 21 19 17 15 15 15 13 12 10 11 10 10 10 9 8 7 7 7 7 10 13 10 10 9 12 10 12 11
27 27 26 26 26 26 26 26 25 25 25 25 25 24 23 21 18 17 15 14 13 12 11 10 10 10 10 10 8 8 7 6 6 7 10 11 10 9 7 9 9 9 9

GFSGL_sfc_30mbdewp_033.txt.gz
Dewpoint
28 29 31 32 35 36 37 37 38 38 36 36 37 37 37 37 37 35 34 33 32 32 32 29 27 27 26 27 28 27 28 30 30 29 32 32 30 28 27 29 33 32 32
28 30 30 31 36 37 37 38 38 38 38 38 37 36 35 35 34 33 29 28 25 23 22 22 22 22 23 24 24 24 24 25 24 22 23 22 21 22 23 22 23 24 27
28 29 30 32 34 35 37 37 37 37 37 37 36 34 33 31 26 25 26 25 24 23 22 21 21 21 21 22 22 23 24 22 21 20 20 22 22 22 22 22 21 22 22
28 28 29 33 32 33 35 36 36 36 35 34 29 28 25 24 24 23 23 23 22 22 23 22 22 21 22 23 24 23 21 20 19 19 21 22 22 23 24 24 23 25 25
25 26 28 32 32 32 31 32 31 30 29 28 24 23 24 23 23 23 23 23 22 22 23 22 21 22 24 26 24 26 24 22 21 21 21 21 20 20 19 22 22 23 24
26 26 26 30 30 31 30 29 29 28 27 23 22 24 24 22 26 26 25 23 22 21 20 22 23 22 22 23 25 24 24 25 25 24 24 22 21 21 22 22 22 22 21
28 27 26 29 30 30 29 29 27 26 22 22 22 24 23 24 27 26 26 24 22 20 20 21 19 18 22 24 24 25 25 25 26 24 23 23 23 23 23 22 22 22 22
27 27 28 29 29 30 32 28 25 20 20 21 24 25 23 23 25 25 27 25 23 22 22 21 20 21 23 23 22 24 25 27 27 27 26 26 26 26 26 26 26 29 29
29 31 32 33 33 34 31 27 21 19 20 23 26 25 24 24 26 27 27 26 25 24 24 22 21 21 22 22 26 24 24 24 26 26 26 26 28 30 32 31 27 25 22
25 33 34 35 35 34 33 27 20 21 26 26 25 27 27 25 26 26 26 24 23 23 22 21 21 20 23 27 24 25 22 22 22 23 25 25 24 24 25 26 25 24 23
29 32 34 34 33 33 26 20 21 24 26 26 25 26 25 25 23 22 24 24 21 21 20 19 20 21 21 24 26 25 23 24 25 25 24 23 24 26 27 28 30 28 26
29 31 35 35 33 27 23 21 22 24 24 23 22 21 23 21 21 22 19 17 17 18 19 19 22 23 25 25 25 26 27 27 25 24 23 23 24 27 29 29 30 32 32
31 32 32 32 31 27 22 22 22 23 22 22 21 20 20 20 19 19 17 17 19 18 19 21 23 24 21 23 24 25 26 26 25 24 24 25 26 28 30 30 32 32 30
32 32 31 30 29 27 25 23 22 22 22 23 22 19 18 19 18 18 17 19 20 19 21 21 23 20 21 22 23 22 24 24 23 22 23 25 27 26 25 26 27 28 28
29 28 29 30 28 25 24 23 23 23 22 21 21 19 18 17 18 18 16 17 18 21 21 20 18 18 18 18 19 20 21 21 21 22 22 23 23 24 23 25 25 25 25
29 27 27 28 27 25 25 24 25 24 24 25 25 22 20 20 19 18 17 16 15 20 18 17 16 16 16 17 17 17 19 20 21 21 22 22 22 22 23 24 24 23 23
29 28 27 27 25 24 25 24 22 23 26 25 26 27 25 22 19 16 17 16 13 16 16 16 15 16 16 16 15 16 16 19 20 19 20 20 21 21 23 23 23 23 23
30 28 26 25 22 21 22 23 22 25 23 23 24 25 25 22 17 19 18 15 14 14 14 15 15 16 15 14 15 15 16 17 16 16 17 18 18 21 21 22 22 22 23
25 24 24 21 21 23 24 24 26 25 23 24 23 23 24 19 16 18 18 14 13 11 11 13 15 15 14 14 14 14 15 14 14 14 14 15 16 19 19 21 21 21 22
25 26 25 23 22 23 23 25 26 23 24 23 22 22 19 12 11 15 16 14 12 11 10 11 13 14 13 13 14 14 12 11 11 11 12 13 15 17 17 19 20 19 20
24 23 22 20 21 23 24 25 25 24 21 22 22 23 18 14 13 17 16 15 13 11 10 10 11 12 12 12 13 12 12 9 8 9 10 11 12 15 15 17 18 18 17
21 20 20 23 23 23 24 25 24 21 23 24 24 23 20 16 17 19 15 15 14 12 11 10 11 11 10 10 12 11 11 8 8 8 9 10 11 14 13 15 13 15 13
20 23 22 21 22 24 24 24 24 24 25 25 23 21 20 20 19 16 15 15 15 14 11 10 10 10 10 9 10 9 9 7 8 9 8 9 11 13 12 13 12 13 11
21 19 21 22 21 25 24 24 25 25 25 24 24 23 23 22 20 16 14 13 15 14 11 9 10 10 10 9 9 9 8 8 7 7 8 9 11 9 9 11 10 10 9
23 22 23 25 22 21 22 24 24 24 24 24 24 24 24 22 20 17 14 14 13 12 11 9 9 9 9 10 8 8 6 6 6 6 8 10 9 8 6 8 7 7 7
21 23 25 25 25 24 25 23 23 24 24 25 25 24 24 23 20 17 14 13 12 11 10 9 8 9 9 8 8 7 5 5 5 7 9 10 6 5 6 5 5 5 5

GFSGL_sfc_30mbdewp_036.txt.gz
Dewpoint
28 30 31 32 36 37 37 37 37 37 36 37 38 37 36 35 35 33 32 33 31 27 24 23 23 23 23 23 24 24 24 26 25 26 29 30 28 24 23 26 31 36 35
27 29 30 31 36 36 37 37 36 34 36 36 36 36 33 33 33 29 27 26 24 23 23 22 22 21 21 22 23 23 23 24 24 22 23 22 20 21 23 23 23 22 25
28 28 27 29 34 35 36 36 35 35 35 35 35 33 29 28 25 25 24 23 22 23 23 22 22 21 21 22 22 24 25 24 24 22 20 21 22 23 22 24 24 25 25
27 27 27 28 33 33 35 36 35 36 35 33 30 27 26 24 23 22 23 23 23 22 23 22 22 22 22 23 24 25 25 24 22 21 20 21 22 22 22 21 20 24 22
28 27 27 28 32 33 34 33 34 32 31 29 25 25 24 23 23 24 23 23 22 22 21 21 21 21 19 21 23 25 26 24 24 24 23 22 21 21 20 20 21 22 23
29 28 30 29 31 31 32 33 32 30 32 24 23 24 23 23 26 26 25 24 23 22 21 21 22 20 19 21 23 24 25 23 23 23 22 22 22 21 22 22 22 21 20
26 30 30 29 31 32 32 34 35 34 28 22 24 25 23 24 27 26 27 26 24 23 22 22 22 20 21 22 23 23 24 25 25 25 25 24 23 23 23 23 23 23 22
28 31 32 32 32 33 34 34 32 30 26 21 25 24 23 23 26 27 27 26 25 24 24 23 22 21 21 21 22 24 25 25 25 26 26 26 26 26 26 26 26 25 26
29 31 31 34 34 35 35 34 33 33 24 25 25 24 24 25 27 26 25 24 22 22 22 22 20 20 20 20 24 23 22 24 23 22 22 23 26 29 28 27 26 25 24
28 29 32 34 34 35 34 34 32 23 26 25 25 25 26 23 22 23 22 23 20 20 21 19 19 18 20 22 24 23 22 22 22 22 22 24 24 24 24 25 24 22 21
28 30 34 35 34 34 33 26 24 26 25 24 23 23 24 21 20 21 19 17 18 19 18 17 19 20 24 24 23 24 24 25 25 25 25 24 24 25 26 28 28 27 25
31 32 32 32 32 32 24 24 25 25 23 22 20 20 21 20 20 19 16 16 17 18 18 19 22 24 20 21 24 25 25 25 25 25 24 23 24 25 27 29 30 31 31
32 32 31 31 30 29 23 22 23 23 21 22 21 20 19 20 18 19 18 18 19 19 20 21 22 18 19 21 22 22 23 23 22 21 22 23 25 27 28 28 30 30 31
31 29 28 29 29 26 24 23 22 21 21 22 21 20 18 18 18 19 19 18 19 21 21 21 20 19 19 20 20 21 22 22 22 21 21 23 25 25 24 26 25 25 26
32 30 26 29 30 28 25 22 23 23 22 22 22 21 19 19 18 19 20 18 16 20 16 17 16 16 16 17 17 18 20 20 19 20 20 21 22 23 23 24 24 24 24
30 29 27 27 27 25 25 25 24 25 25 26 26 23 21 21 21 19 20 17 13 16 15 15 14 15 15 15 15 16 16 18 18 19 19 19 19 20 22 23 23 22 22
29 29 27 27 25 22 20 23 21 21 26 24 26 25 26 24 21 18 18 15 13 13 13 14 14 14 14 14 14 14 14 16 16 16 16 16 17 18 20 21 21 21 22
28 30 27 24 21 20 23 22 23 24 23 21 24 25 25 22 18 18 18 15 12 11 10 12 13 14 13 13 13 13 13 12 12 13 13 14 15 17 18 19 20 20 20
27 26 28 24 20 21 23 23 23 25 22 22 21 22 24 23 16 18 18 13 12 10 10 10 13 14 12 13 13 12 12 9 9 10 11 12 13 15 15 17 18 18 19
24 25 25 23 20 20 22 23 24 25 23 20 20 21 21 17 13 14 14 13 11 10 9 9 11 12 11 11 13 11 11 7 7 8 9 9 11 13 14 15 16 15 15
24 23 23 22 20 21 21 21 23 24 22 21 21 21 22 18 15 13 16 14 12 11 10 9 9 10 10 10 12 9 9 6 6 6 8 9 9 11 13 13 13 13 12
21 20 21 21 22 21 22 23 22 22 22 22 23 23 22 18 16 16 17 15 13 11 10 9 9 10 9 9 10 7 7 4 5 5 7 8 9 11 11 11 11 11 9
20 19 20 20 19 20 22 23 23 23 23 24 23 23 20 20 19 19 17 14 13 13 10 9 8 9 9 9 9 8 6 5 7 6 6 7 9 9 8 9 9 9 7
24 21 20 20 22 21 21 19 20 21 22 22 22 23 22 22 21 20 16 13 12 12 11 9 8 9 8 9 8 8 7 7 6 6 7 7 8 7 6 7 7 7 6
24 23 22 21 22 24 22 22 22 23 23 23 24 23 22 22 21 20 16 12 12 12 12 9 8 9 8 9 8 7 5 4 5 6 8 9 6 6 5 5 5 6 4
26 23 22 22 22 23 24 23 22 20 22 22 23 23 23 22 21 19 17 13 13 11 10 8 8 8 8 7 8 6 3 2 5 7 7 7 4 4 6 4 4 5 4

GFSGL_sfc_30mbdewp_039.txt.gz
Dewpoint
28 30 31 31 35 37 36 36 37 37 36 36 36 37 37 34 33 33 32 29 25 24 24 23 22 23 22 22 22 23 23 24 21 22 26 28 28 22 20 23 25 25 33
27 28 29 31 32 35 36 37 37 36 34 35 35 36 35 31 28 26 25 25 23 22 22 22 22 21 21 22 22 22 23 23 23 23 24 24 22 20 22 23 23 25 26
27 28 29 28 29 32 35 36 37 35 35 35 35 34 31 26 25 24 23 22 22 22 23 22 21 20 21 22 22 23 24 25 25 24 23 22 21 23 22 22 22 22 23
30 29 28 28 29 31 33 35 36 35 36 34 34 31 27 25 23 22 23 22 22 22 23 22 20 21 21 21 21 25 25 26 25 24 24 23 22 22 23 21 20 22 21
25 28 29 30 30 31 33 33 34 35 34 34 35 31 26 24 22 23 23 22 22 22 23 22 21 22 22 20 19 21 22 24 23 23 23 23 22 21 21 20 20 21 22
23 29 30 29 30 31 32 33 33 35 35 36 32 27 25 23 25 25 26 25 25 24 23 22 22 23 22 20 19 21 22 23 23 22 21 22 22 22 22 21 21 21 21
26 30 31 31 30 30 31 34 34 33 33 30 26 26 23 24 26 27 27 27 26 25 24 23 22 20 20 20 21 22 22 23 24 24 23 22 23 23 22 22 22 22 22
28 31 31 31 32 33 33 34 31 31 30 29 25 24 22 23 27 27 26 24 22 22 21 22 21 21 21 20 22 23 23 24 23 24 24 25 26 27 25 24 24 24 24
27 28 28 31 33 34 34 34 34 34 32 25 25 23 23 24 24 25 24 21 19 19 20 20 19 18 19 20 23 22 22 22 22 23 23 23 23 23 27 28 25 23 22
26 27 30 34 34 33 34 34 33 25 26 25 24 24 25 20 21 21 20 18 16 18 19 18 18 19 21 25 23 23 21 21 23 22 23 23 23 24 24 24 23 22 21
28 30 32 33 32 32 32 25 26 26 26 24 23 23 23 21 20 20 18 17 17 18 18 18 19 21 21 20 22 23 23 24 24 25 25 25 26 25 25 25 25 24 22
29 32 32 31 31 31 29 24 27 27 23 21 20 20 22 21 20 19 18 19 18 19 19 20 21 18 18 19 21 22 23 23 23 22 23 24 24 26 27 28 28 29 28
31 31 32 29 29 28 23 23 23 23 22 21 21 20 19 20 19 20 20 21 19 19 20 18 17 17 17 20 19 21 22 21 21 20 20 22 24 26 27 27 29 30 30
31 31 31 28 29 29 29 27 23 22 21 21 21 20 19 19 19 19 19 21 17 19 17 17 16 17 17 18 18 19 20 20 19 19 19 22 24 24 24 26 25 25 25
29 30 30 28 30 28 26 23 23 23 22 22 22 22 20 20 19 21 21 18 14 16 14 14 14 14 14 15 15 16 17 17 16 17 18 18 19 21 22 24 24 23 23
29 29 29 28 28 26 24 23 24 24 25 26 26 24 22 22 23 21 18 17 14 12 12 13 12 12 13 13 13 13 14 14 14 15 16 16 16 17 20 21 22 21 21
29 29 28 28 26 22 21 20 21 21 25 24 25 25 26 25 23 18 17 16 13 11 9 10 11 12 12 13 13 12 11 10 12 12 13 13 14 16 18 19 19 19 19
29 29 29 28 23 21 20 22 22 22 23 21 22 24 25 24 21 17 18 15 12 11 9 9 11 12 11 12 12 12 11 8 8 9 10 11 12 14 15 16 17 17 17
27 27 26 27 24 20 19 21 22 23 24 21 20 20 22 24 22 18 19 14 12 10 10 9 10 11 9 10 12 10 10 6 6 6 8 9 9 11 13 14 15 13 14
25 24 25 25 22 20 20 21 21 23 23 22 20 20 20 20 18 14 12 13 12 11 9 9 9 10 8 8 10 8 9 5 4 5 7 8 8 10 12 12 13 12 11
23 23 23 22 22 21 21 20 20 21 22 20 21 20 19 21 20 16 15 15 14 12 10 9 8 8 8 8 10 7 6 4 4 5 6 7 8 8 10 10 11 10 10
23 21 20 20 21 21 20 20 21 21 21 21 21 22 21 19 20 18 16 16 14 12 11 9 9 9 9 8 9 7 6 3 4 4 5 7 8 8 8 8 8 8 7
23 22 20 19 20 20 18 19 20 20 21 21 21 21 21 21 19 19 18 17 14 12 11 9 8 8 8 7 8 7 6 4 6 5 5 6 7 7 6 7 7 6 6
26 23 22 23 21 21 21 21 20 18 19 21 21 22 21 20 20 20 19 17 12 11 10 10 9 8 8 7 7 7 7 5 6 6 7 7 6 6 5 5 6 5 4
26 25 24 22 22 22 22 21 22 21 21 22 21 22 22 22 20 20 19 17 13 11 12 10 8 8 8 7 7 6 4 2 4 6 7 8 5 4 5 4 4 5 3
27 27 26 24 22 22 21 21 21 21 21 21 21 21 21 22 22 20 19 16 14 11 11 10 9 8 8 7 6 6 2 -0 3 6 6 7 4 4 5 4 3 4 3

GFSGL_sfc_30mbdewp_042.txt.gz
Dewpoint
27 28 30 31 32 36 36 36 36 36 36 35 35 35 36 36 34 33 32 28 25 24 23 22 22 23 23 23 23 22 22 23 21 20 23 25 26 28 26 22 24 24 27
28 28 28 30 30 31 33 35 37 37 37 34 35 35 35 34 31 27 26 25 22 22 22 22 22 22 19 20 21 21 22 23 23 23 24 25 24 24 22 22 22 21 24
29 29 28 29 29 29 30 32 35 36 36 35 35 35 34 31 26 25 24 22 22 22 22 22 22 20 19 20 21 22 22 24 26 25 24 24 23 23 22 23 22 22 22
24 25 28 29 28 29 31 31 33 34 35 35 34 33 33 30 25 23 23 22 22 22 23 23 22 22 21 21 22 20 21 22 22 22 22 22 24 24 24 22 21 22 21
23 26 29 30 29 29 29 30 33 34 34 35 35 35 32 24 23 23 23 23 24 24 24 24 23 23 24 23 22 21 20 20 20 20 20 20 21 22 21 22 21 20 22
22 28 30 30 29 29 30 31 33 34 34 35 34 32 26 26 25 26 28 27 27 26 25 24 24 22 22 21 20 19 19 20 21 20 20 20 20 21 22 22 21 21 20
23 27 31 30 30 31 33 33 33 31 31 30 28 27 24 23 26 27 28 25 23 21 20 20 19 18 19 20 20 20 21 22 22 24 23 22 22 23 23 23 22 22 22
24 27 30 29 30 32 33 33 32 32 33 31 27 24 22 24 26 27 26 21 19 19 19 19 19 19 20 19 20 22 22 22 22 23 21 22 24 24 25 25 25 23 24
24 26 28 29 32 32 32 32 34 33 32 30 25 23 23 22 23 24 22 20 17 17 18 19 18 19 20 21 24 22 21 21 22 22 25 25 25 25 24 25 23 23 21
25 27 29 32 32 31 31 33 32 27 25 25 24 23 25 20 21 21 20 18 16 18 19 19 19 20 20 19 21 22 20 21 22 23 24 25 25 25 25 25 24 21 21
29 28 31 32 31 31 31 29 25 25 27 27 23 23 24 21 20 20 19 19 18 19 18 19 20 20 18 19 20 21 22 23 22 22 23 25 27 26 26 26 25 23 21
31 32 32 32 32 30 28 27 26 29 25 22 20 20 21 21 21 20 20 20 20 18 18 20 20 17 16 17 19 21 21 21 21 21 20 21 22 23 26 28 28 26 25
31 29 29 31 31 28 24 24 25 25 24 21 21 21 20 20 20 21 20 22 20 17 19 15 15 15 16 17 16 19 19 19 18 17 18 19 21 24 25 26 27 30 29
28 28 28 31 28 30 29 28 26 23 21 21 21 20 20 20 20 19 20 21 17 17 16 15 14 15 14 15 15 16 18 17 16 16 17 18 20 21 22 25 25 25 25
29 29 29 29 28 27 27 25 26 25 23 22 22 22 21 21 21 21 21 18 14 14 12 12 12 11 11 13 13 13 14 12 12 14 15 15 16 18 20 23 23 23 22
27 28 28 28 27 26 24 23 23 24 24 26 27 25 22 23 23 23 19 18 15 13 9 10 10 9 9 11 12 12 11 9 10 12 13 13 14 15 18 20 20 20 20
28 28 28 28 27 24 21 19 20 22 24 25 24 25 25 25 25 21 18 17 14 12 8 7 8 9 9 10 12 11 10 7 9 10 11 11 12 14 16 17 17 18 18
28 28 28 27 27 25 22 19 21 21 21 22 22 23 24 25 24 20 18 17 13 11 10 9 8 9 10 9 11 10 9 6 5 7 8 8 9 11 13 14 15 14 14
27 27 26 25 26 25 21 20 19 21 22 22 22 20 20 24 24 22 19 16 14 12 10 10 9 9 10 8 8 7 7 6 4 5 6 7 7 9 11 12 13 12 11
27 25 25 24 23 23 22 20 20 20 20 22 20 19 18 19 20 18 13 12 13 13 12 10 10 9 9 7 7 7 5 4 3 4 6 6 7 7 9 10 11 10 10
26 23 23 22 21 21 20 20 20 19 19 20 20 19 19 20 21 19 18 14 14 14 13 11 9 8 7 7 7 8 6 3 3 3 5 6 6 6 8 8 9 9 9
27 25 23 22 20 19 20 20 19 18 19 19 20 20 19 18 19 19 18 17 15 14 13 11 10 9 8 9 8 7 6 4 2 3 4 6 6 7 7 6 7 6 7
25 25 24 23 22 21 20 19 18 17 18 19 19 19 19 20 19 19 19 17 16 14 12 10 10 9 7 7 6 7 7 5 4 5 4 6 6 6 6 5 6 5 5
27 25 24 24 22 21 22 22 21 21 20 19 17 18 20 20 20 19 18 17 16 14 10 10 10 10 9 7 6 6 7 5 4 4 5 6 6 5 5 5 5 5 4
27 27 26 24 24 23 22 22 22 21 21 20 20 20 20 20 21 20 19 17 17 15 12 9 9 10 9 7 7 7 5 3 -0 3 6 7 6 3 5 5 4 5 3
28 27 26 26 25 24 23 23 22 22 21 21 20 20 20 20 21 21 21 19 17 16 13 10 10 10 8 7 6 6 4 -0 -0 3 5 6 5 4 5 4 3 4 3

GFSGL_sfc_30mbdewp_045.txt.gz
Dewpoint
29 31 32 32 33 33 33 34 34 36 37 38 38 36 35 36 37 36 33 32 28 27 26 24 24 24 22 21 20 19 18 19 17 15 16 18 21 22 22 23 24 25 23
31 31 30 31 32 32 31 31 33 34 36 37 38 36 36 36 35 32 30 26 25 23 23 23 22 20 20 19 18 17 17 17 16 15 16 18 18 21 22 23 23 22 21
25 24 26 30 30 29 30 31 31 32 34 36 36 36 35 34 33 32 26 24 23 23 22 22 21 21 20 19 19 18 18 18 18 18 16 15 15 19 20 20 21 23 22
23 23 28 30 30 30 31 30 32 34 34 35 35 35 35 34 32 29 24 23 23 23 24 23 23 22 21 20 20 20 21 19 18 16 14 13 14 15 16 19 18 19 20
23 24 29 32 31 30 30 32 33 35 35 35 35 34 34 32 29 26 24 24 25 24 24 23 22 22 22 21 19 18 19 17 15 15 14 13 14 14 14 15 17 18 19
23 25 30 32 31 30 31 32 34 34 33 32 32 32 29 27 26 28 27 25 24 20 17 15 14 14 15 18 18 19 19 18 18 17 17 16 16 14 15 17 18 19 17
23 25 28 31 30 30 31 32 32 32 33 32 31 29 27 25 27 28 26 22 19 17 14 13 13 14 16 16 17 18 18 20 22 24 22 20 16 16 16 19 18 20 18
24 24 26 29 29 31 32 31 32 33 34 31 31 27 24 24 25 26 24 21 19 15 14 14 15 16 16 19 19 24 19 17 17 19 24 24 23 22 21 20 20 20 21
23 26 27 29 30 31 30 30 31 32 31 31 29 25 23 22 22 23 21 21 19 17 17 16 16 17 19 20 21 19 17 16 18 20 20 22 26 26 28 27 25 23 19
27 29 29 31 32 30 30 29 30 26 25 26 24 24 24 22 21 21 21 21 20 19 17 15 16 17 18 19 20 20 17 17 17 18 19 19 22 28 27 26 23 22 17
28 29 31 32 32 32 29 28 27 27 28 29 28 24 24 23 22 21 21 21 20 19 16 15 15 16 17 16 17 18 20 20 19 19 19 19 20 22 26 29 29 26 21
30 29 28 26 26 30 29 25 25 30 29 26 25 25 24 25 22 22 21 20 21 19 16 16 15 15 15 15 16 17 19 18 18 17 18 18 18 19 21 24 26 30 28
28 28 27 26 28 29 27 27 27 26 27 27 24 22 22 23 23 22 22 21 21 18 17 15 14 14 13 14 14 14 16 16 15 16 16 17 18 20 22 24 26 30 30
26 27 28 27 27 28 28 27 26 25 24 23 22 22 23 23 23 24 21 22 21 17 16 13 14 13 12 12 12 13 13 10 12 15 15 17 19 20 22 25 25 26 27
25 25 26 28 28 27 26 24 23 24 25 24 23 24 23 22 22 23 22 22 19 16 14 13 10 10 9 8 10 10 9 6 9 13 15 15 16 18 20 22 23 23 24
26 26 27 28 28 27 25 23 24 26 24 24 25 27 26 25 24 24 23 20 17 15 12 11 10 10 10 8 9 9 8 5 7 12 13 14 15 16 17 19 20 21 21
26 28 27 27 27 27 26 23 21 21 23 24 25 26 25 25 26 25 22 19 17 14 13 12 12 10 10 8 7 8 6 6 5 10 12 12 13 15 16 16 17 17 18
29 28 27 27 27 26 25 26 23 21 20 21 23 24 24 24 25 25 22 19 17 16 14 13 13 12 9 7 5 6 4 6 4 7 11 11 11 13 14 15 15 15 14
29 28 28 27 27 26 26 25 23 22 21 21 22 23 23 22 25 26 24 21 19 18 17 14 14 12 11 9 9 9 9 7 5 6 10 10 10 11 12 13 14 13 12
28 28 28 27 26 24 23 23 22 21 21 20 20 21 23 21 24 24 23 22 20 19 19 17 15 13 13 11 10 10 9 8 4 4 8 10 10 10 11 11 12 12 10
28 28 27 25 25 24 24 22 22 22 22 21 21 24 22 22 23 24 24 22 21 21 20 19 17 15 14 13 11 9 9 9 6 4 7 8 9 9 9 10 10 10 10
29 29 28 27 26 25 25 24 22 22 22 21 21 22 20 22 23 23 23 23 23 22 21 20 18 16 15 13 11 11 10 9 7 5 7 9 8 8 8 8 8 8 9
28 26 25 25 26 26 25 25 24 24 23 22 22 22 22 22 23 23 23 24 24 22 21 20 19 17 16 14 13 12 10 10 8 6 7 9 8 7 9 8 7 6 6
26 26 26 26 26 25 25 25 25 25 24 25 24 24 23 23 23 23 23 24 23 23 22 19 17 16 16 15 13 12 11 11 8 5 7 9 8 6 8 7 7 7 6
27 27 27 27 27 26 26 25 25 25 25 25 25 24 24 23 23 24 24 24 23 22 21 17 16 16 15 13 13 12 11 9 5 3 8 9 9 7 8 8 7 6 6
25 26 27 27 27 27 27 26 26 26 25 25 25 25 25 25 23 24 24 24 23 21 21 19 17 15 15 14 12 11 8 6 3 3 7 8 8 7 7 8 6 6 6

GFSGL_sfc_30mbdewp_048.txt.gz
Dewpoint
31 32 33 31 28 27 27 26 26 26 24 24 24 27 29 31 32 33 33 31 31 29 26 25 22 21 20 19 19 17 16 15 13 13 13 14 15 16 17 20 22 20 19
33 26 24 25 25 24 23 24 25 24 25 26 28 30 31 32 34 34 33 34 31 27 24 23 21 20 20 19 18 17 17 16 15 14 14 14 14 15 16 16 19 19 19
20 21 21 22 22 22 23 24 25 26 28 28 30 30 30 33 33 34 33 33 29 25 23 23 22 21 19 18 18 17 17 16 16 17 16 15 14 15 15 16 18 18 18
20 19 17 21 24 24 25 26 27 28 29 30 30 33 35 35 33 34 30 27 26 24 24 24 22 20 20 19 17 16 14 14 15 19 18 14 14 14 14 14 14 16 17
19 17 18 24 25 25 26 27 28 30 30 30 31 32 33 32 29 28 27 25 24 23 22 19 17 17 16 17 17 16 16 15 14 15 14 15 15 15 14 14 14 15 16
18 19 20 23 25 27 27 28 29 28 29 30 29 29 29 27 26 27 26 23 22 19 17 16 14 13 14 17 17 18 18 16 16 16 17 17 17 17 16 17 20 16 18
19 18 19 21 23 26 26 28 28 28 29 30 30 30 29 28 27 29 24 21 20 18 17 15 13 12 15 15 16 17 19 24 26 24 20 19 21 22 20 19 17 17 17
18 19 20 22 23 25 28 28 27 28 30 30 31 32 29 25 26 26 24 21 20 19 17 16 15 15 15 19 16 19 18 17 18 17 19 22 21 19 19 23 25 22 20
18 21 22 25 26 27 27 27 27 27 27 26 30 30 27 25 23 25 22 21 21 20 19 17 16 15 17 17 19 19 18 18 17 19 19 20 21 22 23 28 22 22 22
20 23 25 26 27 28 28 28 27 26 25 26 25 27 26 25 22 22 21 23 22 21 19 16 16 17 16 16 17 18 18 18 16 17 17 17 18 20 24 29 25 23 18
23 26 26 26 26 26 27 29 26 24 28 30 30 30 25 25 25 22 22 23 22 20 19 16 15 16 15 15 15 16 18 17 17 19 18 18 20 20 20 22 24 28 25
25 26 26 26 25 24 26 26 25 25 28 30 29 28 27 26 24 23 23 22 21 20 19 17 17 15 14 14 15 15 14 15 19 16 18 18 19 19 20 21 24 25 29
26 25 26 26 25 24 25 25 25 25 25 27 27 25 24 24 22 24 24 23 21 21 19 18 16 13 12 13 13 13 14 13 12 13 16 17 19 21 24 26 27 30 32
25 24 26 27 27 25 25 24 24 23 23 23 24 24 25 24 22 23 24 23 24 22 19 17 15 15 13 11 12 12 12 10 9 13 15 18 19 21 23 25 24 24 28
24 24 24 25 26 26 25 24 23 22 22 21 20 25 25 24 24 24 23 21 22 20 18 17 15 14 10 9 10 11 11 8 7 12 15 15 17 17 19 22 22 23 25
24 23 24 26 25 25 25 24 25 24 23 25 25 24 25 26 26 25 25 24 21 18 16 17 16 16 13 10 9 10 10 8 6 8 12 13 14 16 17 19 20 21 22
25 25 25 26 25 24 24 24 24 23 24 23 24 25 25 26 25 26 25 24 21 18 17 17 18 16 15 11 8 7 7 7 8 6 10 11 12 12 16 18 18 18 18
27 27 28 27 26 26 26 25 23 23 23 21 23 24 24 25 25 25 25 25 20 21 19 18 17 17 15 10 8 7 8 10 9 7 9 11 12 11 12 14 16 16 15
26 26 27 28 28 27 27 25 25 24 23 22 20 21 25 25 25 24 25 24 20 20 20 18 18 17 15 13 12 13 12 12 10 10 10 10 11 10 11 11 11 12 12
26 27 28 28 28 27 26 25 26 25 23 23 22 21 21 25 24 24 25 24 24 23 21 20 18 18 17 15 14 14 13 12 10 8 9 11 11 10 10 10 10 10 10
26 26 27 28 29 28 28 27 26 26 25 24 24 25 23 21 21 23 23 26 24 23 23 23 21 20 19 17 15 13 12 12 11 8 8 10 10 10 9 9 9 9 9
27 28 29 29 29 28 28 28 28 27 25 25 25 25 24 24 23 22 23 25 26 26 25 24 24 21 19 17 15 15 13 12 11 10 9 9 9 9 9 9 9 9 8
27 27 27 27 27 26 27 26 28 28 27 27 27 26 26 27 26 25 25 26 27 27 26 25 24 23 21 19 18 15 13 12 12 10 8 10 9 9 10 10 9 8 8
25 27 26 26 27 26 27 28 28 28 28 28 28 28 28 28 28 28 27 28 28 28 27 26 24 23 21 20 19 17 14 13 13 9 8 9 9 9 8 9 8 8 8
26 27 27 26 27 27 27 27 27 28 28 28 28 28 28 29 29 29 29 29 28 27 26 26 25 23 21 19 18 17 14 13 11 8 8 10 9 9 8 8 8 7 7
25 23 24 25 25 26 27 27 27 26 26 27 28 28 28 28 28 29 29 29 28 26 25 25 24 23 21 20 18 16 14 12 10 5 8 9 9 9 8 9 8 7 6

GFSGL_sfc_30mbdewp_051.txt.gz
Dewpoint
33 34 36 33 29 27 27 25 24 25 24 24 24 25 26 27 26 27 32 31 29 30 29 30 27 25 24 22 21 21 17 17 15 17 17 18 19 19 18 20 20 21 21
35 37 27 25 25 24 22 22 24 24 25 26 26 26 27 26 26 28 29 29 29 29 30 29 27 24 24 22 19 16 17 17 16 16 16 16 16 19 19 19 17 16 19
28 21 21 21 20 21 22 23 24 25 27 27 27 27 27 31 33 33 32 31 32 31 29 26 25 24 20 17 18 18 17 15 16 15 15 17 18 19 17 17 17 18 17
20 19 17 18 22 23 24 24 25 27 28 27 27 28 31 33 31 31 30 30 28 28 27 26 22 18 17 19 16 15 14 14 14 14 13 13 14 16 17 16 17 18 18
20 17 16 20 23 23 24 26 27 28 27 26 27 28 30 30 29 27 28 28 26 25 22 18 17 17 16 16 15 15 16 15 14 13 14 14 14 14 17 19 18 18 20
17 16 17 18 20 21 23 26 26 26 26 27 29 30 30 29 27 27 26 24 22 20 17 17 16 16 15 16 18 20 19 15 15 16 17 18 19 16 18 24 24 21 20
17 15 15 17 18 20 21 22 25 26 26 28 30 30 32 31 28 28 25 22 21 19 18 17 16 14 16 17 18 17 16 20 22 22 21 19 21 24 22 20 19 19 20
16 16 16 18 20 21 23 25 25 25 26 27 29 30 31 34 28 26 25 22 20 20 19 19 17 16 17 19 17 15 17 18 18 19 19 19 19 18 19 19 21 23 25
14 16 18 20 22 24 25 26 26 25 25 26 27 29 29 33 26 25 23 22 21 21 20 19 18 16 19 18 15 16 16 17 17 19 17 17 19 21 22 24 24 24 23
16 18 21 23 24 24 25 26 27 26 24 26 27 28 29 29 25 24 23 23 25 22 20 18 18 17 17 16 15 16 16 17 13 14 16 19 18 19 23 23 26 25 25
19 21 23 24 24 24 24 25 26 24 27 28 32 29 29 30 29 24 23 22 23 22 20 18 18 18 18 15 15 16 19 15 14 18 19 17 20 20 22 23 23 24 23
21 23 24 24 24 24 24 24 24 25 26 30 30 29 28 29 27 26 24 23 23 21 20 20 20 19 17 14 14 15 15 15 18 14 15 17 17 19 21 23 25 26 27
23 23 23 25 26 26 24 23 24 25 26 27 29 30 28 29 27 25 25 24 24 22 21 20 20 18 15 14 14 13 16 15 12 12 13 16 18 19 22 25 26 25 26
24 24 24 24 25 25 26 24 24 25 25 24 24 24 25 25 25 24 29 27 25 24 24 23 19 19 18 17 16 14 14 14 11 11 12 15 18 18 19 21 23 23 25
23 23 24 24 25 26 26 26 25 24 23 23 22 22 24 26 25 26 24 22 24 25 21 19 19 19 17 15 13 12 13 12 11 9 11 12 12 15 17 19 21 22 22
25 25 25 25 26 26 25 25 26 26 25 24 22 22 25 25 25 26 26 25 24 23 20 18 18 22 19 18 14 13 12 11 11 10 10 11 12 12 13 18 19 20 21
26 26 26 25 25 26 26 25 25 27 27 26 24 25 25 26 26 25 27 26 25 24 20 19 20 21 20 18 15 12 11 11 12 11 10 12 12 12 14 15 17 17 16
27 26 27 27 28 27 27 28 28 27 26 25 26 26 25 25 26 25 25 25 23 25 20 19 19 21 20 17 14 12 13 14 15 13 12 13 13 12 12 12 11 13 14
26 25 27 28 29 29 29 28 27 27 26 26 25 26 26 25 25 26 26 23 22 23 22 24 24 21 20 18 17 17 17 15 15 14 13 13 13 12 11 11 11 12 12
25 24 26 27 29 29 28 29 27 27 27 27 27 25 25 25 27 26 27 26 25 24 24 22 23 22 21 20 20 19 18 17 15 13 13 13 13 12 11 10 11 10 10
26 25 26 26 28 28 29 30 29 30 28 28 28 29 27 26 26 25 26 26 27 26 25 25 25 24 24 22 20 19 17 16 15 13 13 13 12 12 11 11 10 10 9
27 26 27 27 28 28 27 27 27 27 28 29 29 28 28 28 27 26 25 25 26 27 28 27 26 25 24 22 20 19 18 18 16 14 14 12 12 12 11 11 11 10 10
30 28 27 26 27 27 28 28 28 28 28 28 29 30 30 30 29 28 27 27 28 27 28 27 28 26 27 26 23 20 18 16 16 16 13 11 11 12 11 12 10 10 10
31 30 28 28 27 26 27 27 28 28 29 29 29 29 29 30 30 30 30 31 31 30 29 29 28 27 27 27 24 21 18 16 16 15 11 10 11 11 10 10 10 10 9
31 30 29 28 28 28 28 27 28 29 29 29 28 28 28 29 29 30 31 31 31 30 30 29 28 27 27 27 23 22 19 16 16 14 12 11 11 11 10 10 10 10 9
29 28 27 25 25 24 22 22 22 23 24 26 26 27 27 27 28 28 30 30 30 30 30 30 29 28 27 26 24 22 19 16 14 12 9 10 11 11 11 10 10 9 8

GFSGL_sfc_30mbdewp_054.txt.gz
Dewpoint
37 35 36 38 35 29 29 28 26 27 27 28 28 29 29 29 30 31 33 31 32 32 31 32 31 30 28 27 27 25 23 23 20 19 20 20 21 21 21 22 22 20 19
35 37 38 38 28 27 26 25 26 26 28 28 29 29 30 31 35 34 33 33 32 31 32 31 30 28 27 27 26 23 22 20 18 17 17 17 18 20 20 21 19 18 19
35 36 31 24 23 23 24 26 27 27 28 29 30 30 30 32 32 32 32 31 31 31 30 29 27 26 25 23 21 19 18 17 18 17 16 17 17 18 18 19 19 19 20
32 22 21 19 22 26 27 27 28 29 29 30 30 30 31 31 32 30 28 29 30 29 29 28 27 24 19 17 16 16 15 17 17 16 15 15 16 17 18 18 20 21 21
22 20 19 22 23 25 26 28 29 29 29 30 29 31 32 32 31 30 29 27 28 27 26 23 20 18 16 18 14 16 18 18 17 15 15 16 17 19 19 19 21 25 24
21 18 18 19 20 22 25 26 27 28 28 29 30 31 32 31 29 27 26 26 25 24 22 20 20 18 20 18 22 20 20 18 18 18 20 21 21 17 22 26 24 20 18
19 17 17 18 20 22 23 24 26 28 29 29 29 30 31 31 30 31 25 23 24 24 22 21 20 17 22 20 19 19 16 17 19 20 20 23 24 23 22 19 18 18 19
16 16 17 19 21 22 24 26 28 29 28 28 27 28 32 32 33 31 25 23 24 24 23 22 21 20 20 19 19 18 17 17 18 18 21 24 21 19 19 20 21 22 23
17 17 18 21 22 24 25 27 28 28 29 28 27 28 29 33 31 27 24 24 24 25 23 23 22 20 20 19 18 17 17 17 17 16 14 15 18 20 21 23 23 23 21
17 20 21 23 24 25 26 26 27 27 27 29 29 29 30 31 29 26 25 25 24 25 23 22 21 19 19 18 17 16 17 18 17 15 16 19 20 20 22 24 27 24 23
18 21 22 23 24 25 26 26 26 26 28 30 30 31 30 29 32 27 25 24 24 25 24 22 22 20 20 18 16 17 18 18 17 18 20 17 20 22 22 23 24 23 23
23 23 24 24 25 25 27 27 26 26 27 30 31 30 30 30 30 30 28 25 24 23 23 23 23 22 20 19 17 16 17 17 18 18 15 16 18 20 21 22 24 27 28
23 23 24 24 25 25 25 26 27 26 25 26 28 29 29 30 29 30 28 27 25 24 24 24 23 22 22 20 18 17 16 17 19 14 14 15 16 19 21 21 22 23 25
23 24 25 25 25 25 26 26 27 27 27 27 27 27 27 27 26 27 28 28 27 25 24 25 26 22 20 20 19 20 19 19 15 14 13 14 17 16 17 20 20 22 22
22 24 25 26 27 26 25 26 26 28 28 25 26 26 24 24 26 28 27 28 28 28 25 22 21 21 22 20 19 17 16 16 14 14 12 14 15 15 15 17 19 21 21
26 27 27 28 28 25 25 26 28 27 27 27 27 25 25 25 25 26 28 27 25 25 23 21 21 21 23 21 19 18 16 15 15 13 14 13 14 15 15 16 19 20 19
27 28 28 28 27 27 26 26 27 28 28 28 27 27 26 25 25 26 26 26 28 26 24 21 20 21 22 22 19 18 15 14 14 16 14 14 15 15 15 16 16 16 16
29 29 28 28 29 28 29 28 28 27 27 27 28 28 27 27 27 27 27 26 25 26 25 23 21 22 22 22 19 17 16 17 17 18 14 16 15 14 14 15 15 15 15
30 29 29 29 29 28 29 29 28 28 27 27 27 27 27 27 27 27 27 26 23 22 23 25 23 23 25 23 20 20 18 18 17 15 16 16 15 15 13 14 14 14 13
29 29 28 28 29 29 29 29 29 28 30 30 28 27 27 29 28 27 26 26 25 24 23 23 24 23 24 24 23 22 20 19 18 19 16 14 16 14 13 13 13 13 14
30 30 30 28 27 28 30 29 28 28 28 28 29 30 29 30 29 29 29 28 27 26 25 25 25 25 25 25 23 21 21 19 17 17 15 14 14 12 14 12 13 12 13
32 32 31 31 30 29 28 27 26 26 25 26 26 27 29 30 29 28 28 28 28 28 28 29 28 26 26 26 24 23 21 19 19 17 16 16 12 13 14 12 13 11 12
28 30 31 31 30 29 29 29 28 28 27 28 28 29 30 29 30 30 29 29 29 29 29 29 29 28 27 27 26 23 23 20 19 18 16 14 12 13 12 12 12 11 10
26 27 29 30 30 29 29 28 29 29 29 28 29 29 29 28 29 29 30 31 31 31 31 30 30 29 28 28 27 25 22 20 19 16 14 12 12 12 12 11 11 10 10
26 27 29 29 27 26 26 25 23 23 22 22 23 25 26 26 27 28 29 31 30 30 31 31 30 30 29 28 28 24 22 20 17 17 13 12 12 11 10 10 11 10 10
27 28 26 25 24 23 22 21 20 20 20 19 20 20 21 22 23 21 21 26 29 29 30 31 30 30 29 29 28 25 22 19 16 15 14 13 12 12 12 11 10 9 10

GFSGL_sfc_30mbdewp_057.txt.gz
Dewpoint
35 35 34 35 38 35 32 29 27 27 27 28 29 29 29 31 34 34 33 33 32 32 32 32 31 30 29 28 28 27 24 20 18 18 19 20 19 19 21 22 22 21 21
35 35 37 39 36 30 27 27 28 27 29 29 29 30 30 34 32 31 32 31 31 29 30 30 29 29 27 28 22 20 17 17 17 17 18 18 18 19 19 19 19 18 19
38 36 36 37 27 25 27 28 27 27 28 29 29 29 31 32 30 30 32 31 29 29 30 29 29 27 26 20 17 16 16 16 18 18 17 17 16 18 18 19 20 21 22
34 34 30 23 26 27 27 27 28 29 29 29 29 31 31 31 31 32 30 29 30 30 29 29 28 24 17 16 15 14 16 18 18 18 17 16 17 18 20 20 19 21 24
28 22 23 23 23 23 25 27 28 29 30 29 30 31 32 32 31 30 31 29 27 27 26 25 21 20 20 17 15 18 19 17 17 17 17 18 18 19 21 19 24 23 21
20 20 21 21 21 22 24 25 26 27 29 30 31 31 31 31 30 28 26 27 30 29 23 23 21 19 19 21 22 21 20 17 16 18 18 19 19 20 25 21 20 17 15
19 20 19 20 22 23 24 25 26 28 31 30 30 29 29 31 30 30 31 28 26 26 24 22 21 22 21 19 19 19 18 17 16 19 18 19 22 22 21 18 18 19 20
19 18 20 20 21 24 26 26 29 29 28 28 29 28 30 32 32 32 29 30 24 24 23 22 21 21 20 19 18 17 17 17 18 18 19 18 18 17 19 20 22 22 22
19 18 19 23 25 25 26 27 28 27 26 26 29 28 29 32 33 32 30 23 24 25 24 22 24 21 21 20 18 16 16 17 17 19 17 18 20 21 21 22 23 22 20
21 23 23 26 27 26 26 27 27 27 26 28 29 29 29 30 33 31 27 23 24 23 24 24 22 19 20 20 18 16 15 15 18 18 17 19 20 20 23 23 23 21 21
23 25 25 26 24 25 27 27 27 28 28 29 29 29 29 29 30 31 28 26 23 23 24 24 22 21 21 21 20 17 16 17 19 18 18 19 17 20 21 22 23 24 23
24 25 25 25 26 25 25 26 26 27 27 27 28 28 29 29 29 32 31 28 26 24 23 23 23 24 23 22 21 21 19 19 18 16 18 14 16 16 18 21 22 23 23
24 24 25 26 26 26 25 25 25 26 26 26 25 25 26 28 29 30 31 30 28 26 24 23 24 24 23 24 24 22 21 19 16 15 16 14 13 16 19 19 20 21 23
23 24 25 25 26 26 26 25 25 24 23 25 28 28 29 30 28 26 27 29 30 27 27 25 24 25 24 22 21 21 20 18 16 17 14 12 15 16 17 18 18 18 22
22 24 26 26 27 27 27 26 25 25 26 25 25 25 25 26 26 26 26 28 29 28 27 26 25 22 20 21 22 20 19 17 15 14 12 13 14 15 15 17 17 20 20
25 25 25 26 27 27 26 26 27 27 27 28 28 28 27 26 26 26 27 28 29 29 25 22 20 19 19 20 22 21 19 17 16 13 13 14 13 15 15 16 17 17 16
23 25 26 27 27 27 27 26 25 26 28 29 29 29 29 28 27 26 26 27 27 27 25 22 21 19 18 19 23 21 18 17 14 16 16 13 14 15 14 15 16 15 15
28 28 29 28 28 28 27 27 27 27 26 26 27 28 29 29 28 28 27 28 27 25 25 23 21 20 20 21 23 21 19 16 16 16 15 13 13 15 14 13 14 14 15
29 29 29 30 30 29 29 29 27 28 28 27 27 27 27 28 28 29 28 28 25 24 24 24 23 22 22 21 22 22 17 16 16 15 15 14 16 15 13 12 13 13 13
28 29 29 30 31 31 30 29 29 29 29 29 29 29 28 27 27 27 27 28 26 25 24 24 23 24 23 24 25 23 19 17 17 16 16 17 12 14 11 11 12 13 13
26 27 27 25 25 28 30 29 29 27 26 25 25 25 27 28 29 29 27 26 26 26 25 25 25 25 24 24 24 23 21 19 18 17 16 13 13 12 10 13 12 13 12
21 25 25 25 24 26 29 29 27 26 25 25 25 26 26 27 29 29 28 29 29 29 28 27 26 26 26 25 25 23 21 19 18 16 16 14 13 11 11 12 12 11 10
20 21 23 25 25 26 28 28 27 27 26 26 26 25 26 28 29 28 29 29 30 30 30 30 29 28 28 28 27 25 22 20 19 18 16 15 13 11 12 10 11 10 9
22 23 24 25 26 25 25 23 23 22 22 20 20 21 21 22 24 21 21 22 29 30 31 30 30 29 29 28 28 26 24 22 20 19 16 14 12 11 11 10 10 9 9
19 17 17 19 19 20 20 20 19 19 18 18 17 17 19 18 16 17 16 16 17 18 27 30 30 30 29 29 28 26 24 24 20 17 14 12 11 10 10 9 9 9 9
15 13 12 13 14 15 15 15 15 14 14 14 14 14 15 14 13 13 12 12 13 15 16 22 28 28 30 29 28 27 24 24 21 16 15 12 10 10 10 10 10 9 9

GFSGL_sfc_30mbdewp_060.txt.gz
Dewpoint
38 37 35 37 39 38 35 33 30 28 28 28 29 29 29 32 34 33 32 32 31 31 31 31 32 31 29 29 31 31 27 20 17 17 19 19 19 19 17 19 21 20 20
36 36 38 38 39 35 30 29 29 28 29 29 29 29 30 33 33 31 30 31 30 29 28 30 30 30 28 26 22 19 17 17 16 14 17 18 18 17 17 19 19 19 21
38 37 39 41 28 27 28 28 27 27 28 29 30 29 30 33 32 30 31 31 31 29 28 30 29 28 27 22 18 17 16 16 18 18 17 18 18 17 18 19 20 21 22
39 38 33 27 28 28 28 28 29 30 29 30 30 31 32 32 31 31 31 30 29 30 30 30 29 27 24 18 17 15 16 18 18 17 17 16 17 19 20 20 21 22 23
31 26 26 25 25 24 24 24 26 27 28 30 32 32 32 32 32 32 31 31 28 27 28 28 24 21 20 19 16 17 18 17 17 16 15 17 18 18 18 22 21 20 19
23 23 24 22 22 23 24 25 26 27 29 31 31 32 31 31 31 30 29 27 29 30 30 29 24 22 23 21 23 21 19 16 16 15 16 17 18 20 22 20 18 18 16
22 22 23 23 22 24 25 26 26 29 30 28 28 30 30 30 32 30 29 30 30 27 27 24 22 22 23 22 21 20 18 19 17 16 17 18 20 18 17 18 18 20 19
21 21 21 23 25 26 25 26 27 30 28 27 27 29 29 30 32 31 32 28 28 27 24 23 22 22 21 20 19 18 17 17 16 17 19 19 18 19 20 21 24 23 23
20 21 23 25 25 25 26 27 28 28 27 26 27 28 28 29 32 33 32 30 24 23 25 24 22 23 22 22 19 17 18 16 14 18 18 19 20 18 20 22 20 20 18
22 30 28 25 26 27 27 27 27 28 28 28 28 29 29 28 30 33 33 28 23 23 25 24 24 21 22 21 20 18 16 15 15 18 18 18 20 19 19 20 21 19 19
26 26 26 26 26 26 27 27 26 26 26 27 29 29 29 29 28 30 33 28 25 26 25 23 24 23 22 22 22 20 17 17 18 20 19 18 19 17 18 19 21 21 20
24 25 25 26 26 26 26 25 26 25 25 25 25 25 28 28 28 29 30 31 29 27 25 25 24 24 24 24 24 23 23 22 20 19 17 16 17 14 16 18 20 21 22
25 25 25 25 26 26 26 25 25 25 24 23 23 24 25 27 28 29 30 31 32 29 27 25 25 24 24 25 25 25 23 22 20 18 16 16 15 13 17 18 18 19 20
24 24 24 24 25 26 26 26 25 25 24 24 24 24 25 26 28 28 27 27 28 31 28 27 26 27 24 24 23 22 21 21 19 17 15 15 14 15 16 16 17 18 20
24 23 23 25 26 26 26 26 26 26 25 24 24 25 24 24 24 27 27 26 25 27 27 27 25 24 24 23 21 21 22 21 19 17 15 12 14 14 15 16 16 18 17
25 25 25 26 26 26 26 27 28 28 27 27 27 27 27 27 28 28 28 28 28 29 27 23 23 22 21 20 19 19 20 22 19 16 12 14 14 13 15 15 15 16 16
29 29 28 28 28 28 28 27 27 28 29 28 29 29 29 29 29 30 29 29 28 30 26 23 22 20 19 19 19 19 19 21 19 15 15 15 13 14 15 14 13 15 14
26 27 28 29 29 29 29 29 29 29 28 29 29 29 29 29 29 30 30 30 28 28 27 25 23 21 20 20 20 20 21 20 17 15 16 14 11 14 14 14 12 13 14
24 25 26 26 27 27 26 24 26 29 29 29 29 29 27 28 28 29 31 29 27 26 25 25 25 24 22 21 21 21 21 19 17 14 15 14 12 15 14 12 11 12 13
19 19 20 22 24 22 23 23 23 26 27 28 28 26 26 27 26 26 26 27 28 27 26 25 24 24 24 23 22 22 21 20 18 14 14 13 14 14 13 10 11 12 13
19 20 20 20 21 22 23 24 24 26 27 26 25 25 25 25 25 26 27 26 27 27 27 26 25 25 24 24 24 24 23 21 19 18 17 15 14 13 12 10 12 13 11
20 20 20 21 23 24 23 24 26 26 25 23 23 24 23 24 24 25 27 27 28 29 28 28 27 26 26 25 24 24 23 23 20 18 16 15 13 12 10 11 11 10 9
18 16 16 18 18 19 19 19 20 20 19 19 19 18 18 18 18 18 17 17 18 18 21 29 28 28 27 27 27 26 24 23 21 19 17 14 13 12 10 11 9 10 9
14 11 12 13 13 14 14 15 15 15 15 14 14 14 15 14 13 13 12 13 13 14 16 17 20 29 29 29 29 28 27 26 24 20 18 15 14 12 10 10 9 9 9
10 8 8 9 10 11 10 11 11 10 10 10 11 11 11 12 10 10 9 9 10 11 12 13 16 16 24 29 29 28 27 25 24 22 19 16 14 12 10 9 9 9 8
9 6 6 6 7 7 7 8 7 7 7 7 8 8 8 8 9 8 6 6 7 8 10 12 13 15 14 22 29 28 26 24 22 21 19 16 13 11 10 9 8 9 8

GFSGL_sfc_30mbdewp_066.txt.gz
Dewpoint
46 45 42 41 41 43 43 43 42 42 43 38 33 30 30 30 32 33 33 33 32 30 30 30 29 30 31 30 30 31 30 31 28 26 23 20 18 18 19 18 19 20 21
40 40 40 40 40 40 40 41 43 41 37 32 30 30 30 31 32 33 32 31 31 29 29 29 28 30 30 30 29 28 28 29 24 16 16 17 18 18 18 17 18 19 21
40 40 40 40 41 42 42 42 39 33 30 30 30 30 30 31 31 32 32 31 30 31 30 30 29 29 28 28 27 24 21 18 18 17 17 19 18 17 16 19 20 20 22
41 41 42 42 42 38 35 31 29 29 29 30 30 30 31 32 32 33 32 31 31 31 30 30 29 29 29 28 27 24 21 17 17 17 18 17 16 16 19 18 18 19 18
42 43 42 39 34 31 29 28 27 28 27 29 30 30 31 32 32 31 31 32 31 30 29 28 28 28 27 26 22 21 18 16 17 17 16 16 15 14 15 18 19 18 18
42 41 36 31 26 24 26 27 27 27 28 30 29 29 29 29 30 32 32 31 30 29 28 28 29 31 31 29 29 25 19 17 17 17 16 15 14 14 18 19 18 17 14
34 31 27 24 25 26 27 27 26 26 29 29 29 28 27 28 28 29 30 31 29 28 28 29 29 27 25 22 23 24 23 22 20 18 17 17 14 17 19 18 18 18 18
26 24 25 26 28 27 26 25 26 28 28 28 28 28 28 28 29 30 31 31 29 29 29 28 28 26 22 22 22 23 22 20 20 19 19 17 17 19 19 20 20 20 19
23 24 26 28 26 26 26 26 27 27 27 27 27 26 25 26 28 30 30 30 30 29 29 29 27 24 24 25 25 21 20 19 20 21 20 19 21 20 20 20 16 16 15
27 28 29 27 26 26 26 27 27 27 26 27 25 25 26 27 28 30 30 30 29 29 29 28 27 26 25 26 25 23 20 19 19 17 15 17 20 19 20 20 17 15 15
29 28 27 27 25 26 26 26 26 26 26 25 25 25 25 26 26 27 29 30 29 28 28 27 26 26 27 29 26 23 21 20 20 18 17 18 20 20 20 19 17 17 16
26 25 25 25 25 25 26 26 26 26 25 25 24 24 25 25 26 26 27 29 29 29 28 28 27 28 28 28 27 27 24 23 23 21 21 20 20 19 19 18 16 18 19
25 26 26 26 26 26 26 26 26 26 25 25 25 25 25 26 26 26 27 28 28 29 29 29 29 29 30 30 30 29 27 25 24 22 21 20 20 19 18 17 18 18 18
26 26 25 24 25 25 26 26 26 26 26 26 26 26 26 27 27 26 26 26 28 29 29 29 29 29 29 28 28 28 28 26 24 22 20 19 19 17 15 16 16 16 16
23 23 24 25 25 25 26 26 26 26 27 26 27 27 27 26 25 29 28 28 27 27 26 26 27 26 25 25 25 25 25 24 22 21 20 19 18 16 14 15 16 16 15
19 21 22 23 22 22 21 21 23 23 23 24 24 23 23 24 26 28 30 31 32 30 26 25 25 25 24 23 23 23 23 23 22 21 19 19 19 17 14 14 15 15 13
19 19 20 19 20 20 20 21 20 20 20 21 22 23 24 25 29 31 31 32 31 30 28 27 25 25 24 23 23 22 22 22 22 20 20 18 18 16 14 14 14 14 12
18 19 19 19 19 19 19 19 19 19 18 19 22 22 21 23 26 29 30 30 28 28 28 27 27 24 23 23 23 23 22 22 21 20 19 18 18 16 14 14 14 13 12
19 19 19 19 19 18 19 19 19 18 17 18 18 17 17 20 19 20 22 22 23 25 26 26 27 27 25 24 24 24 23 21 20 18 19 18 17 15 14 14 13 13 11
17 16 15 17 17 17 17 16 16 15 14 14 14 15 14 14 13 14 14 14 13 14 15 16 18 24 26 26 24 24 22 21 20 18 18 18 16 15 16 14 12 12 12
14 11 13 14 13 14 13 13 12 12 12 11 11 13 12 12 11 11 10 10 10 10 11 12 14 15 16 22 25 24 22 21 21 19 19 17 16 15 15 14 13 11 12
10 8 10 11 10 10 9 10 8 7 8 7 7 8 9 8 9 9 8 7 8 9 10 10 10 12 14 14 14 19 23 22 22 20 19 18 17 16 15 13 12 11 11
6 4 6 7 6 7 5 5 6 4 5 4 3 5 6 5 5 7 6 6 6 6 6 8 8 9 11 12 13 14 14 23 24 23 21 19 17 16 14 13 11 10 10
4 3 3 3 3 2 1 1 3 1 2 2 1 2 3 4 3 4 5 4 4 3 4 5 6 7 8 9 10 13 13 12 13 25 23 20 18 16 14 12 11 10 9
4 1 1 1 0 -1 -2 -2 -1 -3 -3 -2 -2 -1 0 1 1 2 3 1 2 1 2 3 4 4 5 5 7 10 10 11 11 19 23 20 18 16 15 13 11 9 8
2 -0 -1 -0 -1 -4 -5 -5 -4 -5 -6 -4 -4 -4 -2 -2 -2 0 0 -1 -1 -1 0 1 2 2 3 3 6 7 8 10 10 17 22 20 17 16 14 13 10 10 8

GFSGL_sfc_30mbdewp_072.txt.gz
Dewpoint
56 56 56 56 57 56 54 52 49 46 44 45 45 47 47 38 34 34 33 31 32 32 31 32 31 31 30 29 27 26 24 23 21 20 20 20 25 25 22 22 21 19 16
55 56 57 55 53 49 48 47 47 46 46 47 47 44 37 33 33 32 31 29 30 30 30 31 31 29 29 29 27 26 24 23 22 22 24 22 25 24 22 22 19 16 14
55 54 50 48 49 48 47 47 47 47 47 44 40 35 33 32 30 31 31 30 31 30 30 30 30 29 29 27 26 24 23 22 22 23 23 23 23 23 20 20 17 15 13
51 50 49 48 47 46 46 45 44 42 39 36 37 33 31 30 30 30 29 29 29 29 29 30 30 29 28 27 25 24 23 23 23 24 24 26 23 21 19 16 14 12 10
48 46 45 45 44 43 42 42 40 36 37 37 31 29 31 31 29 27 26 26 27 26 27 29 30 30 31 30 26 24 23 23 25 26 27 24 19 16 15 14 14 13 12
46 45 44 42 41 40 39 37 36 35 34 29 31 34 32 28 26 28 28 26 24 24 25 25 25 27 30 30 31 31 30 25 26 28 25 22 19 16 17 16 15 12 11
43 42 41 38 36 34 32 31 31 31 33 35 33 30 28 27 29 29 28 25 23 22 23 23 23 22 25 27 28 31 31 31 31 28 25 23 21 23 21 17 13 12 12
41 37 33 31 31 31 30 31 34 36 33 30 29 28 27 26 28 28 26 25 23 23 24 25 25 25 25 26 26 25 24 24 25 25 23 21 20 21 19 17 15 16 17
33 28 29 30 30 33 36 37 32 29 28 26 25 25 25 25 27 28 28 27 26 26 26 26 26 26 26 28 28 28 26 24 24 24 24 25 23 23 22 19 18 18 18
27 30 31 32 33 34 32 28 26 25 24 25 25 26 27 28 29 30 30 29 30 30 29 29 28 28 28 29 29 29 29 26 24 25 23 23 24 23 24 21 19 18 17
32 30 30 30 29 27 26 25 25 25 27 30 31 29 27 26 26 27 28 26 25 25 24 26 29 30 28 29 30 29 29 28 26 27 23 22 21 20 17 20 19 19 19
29 28 27 26 24 25 26 26 25 23 22 23 30 26 24 24 24 23 24 25 25 24 24 24 25 28 30 31 31 30 30 30 30 30 28 24 23 21 20 21 21 21 21
27 26 25 23 22 20 19 16 15 15 18 21 22 22 22 22 21 22 24 26 26 27 27 28 27 28 29 31 31 30 30 30 30 29 28 26 25 24 24 22 22 21 20
23 22 20 17 15 14 11 13 16 19 19 18 19 21 22 20 20 22 24 25 26 28 29 29 30 29 29 30 32 31 31 30 29 29 28 25 25 29 26 23 22 20 21
17 15 14 16 16 15 15 18 19 19 20 20 20 20 20 20 20 20 20 21 23 26 29 29 28 28 27 28 30 30 30 29 28 27 25 25 26 27 26 25 23 20 18
12 14 17 17 17 16 15 18 20 20 20 20 20 19 19 18 17 18 17 18 19 20 24 26 27 29 28 28 29 29 29 28 26 26 26 26 25 26 25 25 22 20 19
13 14 16 16 15 15 15 15 14 18 17 17 17 16 16 15 15 15 15 16 17 18 19 19 21 22 23 25 29 29 29 27 30 29 27 26 25 24 26 23 23 19 19
15 17 15 16 16 16 16 16 15 15 15 15 14 14 14 13 13 14 13 14 13 14 14 15 17 18 18 19 20 22 28 28 28 28 28 27 27 25 25 21 20 20 19
12 13 16 17 17 16 15 15 14 13 13 13 12 12 12 11 12 12 13 13 12 11 11 12 13 14 15 16 18 19 22 24 28 28 28 27 27 26 24 22 20 20 19
11 14 14 13 13 12 12 12 12 12 11 11 11 11 10 8 11 11 11 12 11 10 10 10 11 11 13 14 16 17 18 19 21 27 27 27 28 27 24 22 21 21 18
8 9 12 9 10 10 11 11 11 10 10 9 9 10 6 6 10 9 9 9 9 9 9 9 9 11 11 12 13 13 14 16 18 20 21 26 27 26 25 24 22 21 19
9 8 9 10 9 11 9 9 9 9 8 8 8 7 5 7 8 8 7 7 9 8 7 8 8 8 9 10 10 10 11 12 15 16 16 17 22 26 26 24 23 22 18
8 9 8 7 8 7 8 7 8 8 7 6 6 6 6 6 6 6 6 6 7 6 6 6 7 6 6 7 9 9 10 10 13 13 12 13 16 21 26 24 23 22 19
7 8 5 6 7 6 7 6 6 4 4 5 5 5 5 4 5 5 5 5 5 5 5 6 5 5 6 6 7 7 7 9 10 9 10 11 12 16 23 25 24 22 21
8 7 6 6 6 6 5 5 5 5 4 4 3 3 3 3 3 3 4 4 3 3 4 4 5 5 5 5 5 5 6 7 6 6 8 11 11 14 16 24 24 22 21
7 6 6 6 5 5 4 4 4 3 2 1 1 1 1 1 2 3 2 2 2 2 2 4 4 5 5 5 5 6 5 5 5 5 8 9 10 13 17 23 24 22 19

GFSGL_sfc_30mbdewp_075.txt.gz
Dewpoint
54 56 57 57 57 58 57 56 56 53 48 48 47 45 46 47 47 41 36 35 33 33 33 32 32 32 30 29 28 27 26 25 24 24 23 23 24 26 24 26 25 23 24
53 56 57 57 56 54 52 51 50 49 48 47 46 47 49 46 39 37 36 33 32 31 32 32 30 29 29 29 29 28 27 26 25 24 24 23 24 24 26 29 24 22 21
55 56 55 52 51 49 49 49 48 47 47 48 47 45 43 41 37 33 32 33 32 32 31 29 28 28 28 29 29 27 27 24 24 24 23 24 23 23 23 25 25 23 21
55 54 52 50 49 48 48 48 47 46 45 44 44 44 42 37 32 31 32 31 29 28 27 27 27 27 27 28 28 28 26 26 24 23 22 21 22 23 25 25 24 23 18
53 51 50 48 48 47 46 46 45 43 43 41 41 40 36 30 31 32 30 26 24 24 25 25 25 26 29 30 28 29 28 26 25 23 22 22 24 25 24 24 24 22 20
49 47 47 47 46 44 43 42 42 39 38 38 38 31 33 35 28 26 26 24 23 22 22 21 22 23 24 28 29 30 29 28 27 26 25 24 25 27 24 24 23 20 17
48 47 45 44 42 41 38 37 36 35 34 34 33 36 34 30 27 27 28 26 23 21 21 22 22 21 24 24 26 30 30 30 30 29 27 25 26 26 24 21 20 20 17
44 43 42 41 38 35 33 32 33 34 36 36 34 31 30 27 28 28 28 27 25 25 25 25 26 27 27 27 27 27 27 27 30 30 29 27 25 24 24 24 23 19 17
41 40 37 35 32 32 33 35 38 37 33 31 28 25 25 25 28 28 29 29 29 29 28 27 26 27 28 29 29 29 29 30 28 25 25 27 27 25 23 23 23 21 21
36 33 32 31 32 34 36 36 32 30 26 23 23 25 28 28 30 28 27 27 26 26 24 22 23 22 23 27 30 31 32 29 29 30 27 27 26 24 25 23 22 21 19
31 31 33 33 33 33 31 28 26 24 25 30 32 31 26 24 25 24 25 22 22 24 23 23 24 24 25 27 29 30 31 31 29 32 32 27 31 28 24 24 23 22 21
32 31 30 29 27 28 26 26 25 24 26 25 32 27 25 25 23 24 25 25 25 24 24 26 27 28 29 29 28 28 29 31 31 30 31 31 28 26 25 24 26 24 23
30 29 29 27 24 22 22 21 18 15 18 22 22 23 23 23 21 23 21 22 22 23 24 26 28 29 30 30 30 30 30 31 30 29 29 29 28 29 27 28 27 26 25
28 27 24 21 18 14 11 13 17 20 20 18 19 22 23 21 19 21 19 19 20 21 22 24 25 27 28 30 30 31 30 31 30 29 27 27 29 30 29 28 28 29 26
23 19 18 16 17 16 16 19 19 21 22 22 22 21 21 20 19 18 18 18 18 20 22 24 25 26 26 26 28 28 30 31 30 29 27 26 26 24 26 28 29 26 26
16 16 19 19 17 15 14 22 18 20 21 21 19 19 19 17 16 16 16 16 17 18 18 19 20 23 22 22 24 25 30 31 31 29 28 27 26 25 24 27 27 26 24
17 17 16 16 15 15 15 15 15 21 19 19 18 16 16 16 14 15 15 14 16 14 14 14 16 18 19 20 20 21 21 24 29 31 28 30 28 26 25 26 26 26 24
16 17 16 17 17 17 16 17 16 16 18 17 18 15 14 14 13 13 13 14 13 12 11 11 12 14 15 15 17 19 20 21 23 24 30 30 30 29 26 26 25 24 24
14 15 18 19 18 16 16 16 16 15 15 14 13 14 15 13 11 13 14 13 13 11 10 10 11 11 13 14 15 17 19 20 20 22 23 27 30 27 28 27 26 23 23
13 14 16 13 14 13 13 13 13 14 13 13 13 12 13 11 10 12 12 13 13 12 11 10 10 11 12 13 14 16 16 16 18 19 20 22 25 27 27 27 26 25 21
9 11 13 10 11 12 13 13 12 12 12 11 11 12 10 8 8 11 11 11 12 11 11 11 10 12 11 10 11 12 12 13 15 17 18 17 18 20 26 28 27 25 22
10 10 10 12 11 13 13 11 11 11 10 10 10 9 9 9 11 10 9 10 11 9 10 9 9 8 8 9 10 11 10 11 12 13 14 14 15 16 20 25 26 26 23
11 12 11 9 11 10 11 10 10 10 9 8 8 8 9 9 10 8 8 9 9 9 8 9 8 8 7 8 10 9 9 10 11 12 11 11 12 14 15 18 24 26 24
10 11 9 8 10 9 10 10 9 8 8 7 8 9 8 8 8 7 7 8 7 7 7 8 8 7 7 8 8 9 9 9 10 10 10 9 8 11 15 16 18 26 25
11 10 9 9 9 9 9 8 8 8 8 7 7 7 6 5 5 5 5 6 5 5 6 6 6 7 8 8 8 7 8 10 10 8 7 8 8 9 11 14 16 21 25
9 9 8 8 8 8 8 7 7 6 6 6 5 4 4 3 3 2 3 3 3 4 3 5 6 5 6 6 7 8 9 7 6 5 6 7 8 8 11 14 17 19 25

GFSGL_sfc_30mbdewp_078.txt.gz
Dewpoint
55 56 58 59 59 59 58 57 56 54 52 49 48 47 46 46 46 45 45 44 42 38 37 37 35 36 35 34 33 33 31 30 28 28 28 28 27 27 27 28 31 30 29
54 56 59 59 58 58 56 54 52 50 49 48 48 47 47 48 49 46 43 40 39 37 36 35 35 35 33 35 34 33 32 31 29 28 27 27 27 28 28 28 30 30 27
53 58 58 57 57 55 53 51 50 49 49 48 47 47 47 46 45 44 41 40 37 36 35 34 33 32 32 32 32 32 32 30 29 28 26 26 26 27 25 25 28 31 29
57 57 55 54 52 51 50 49 48 48 48 47 47 46 45 45 43 42 39 35 35 32 32 31 30 30 30 30 30 31 31 30 29 27 26 25 25 25 25 25 26 28 28
55 53 50 49 49 48 48 48 48 47 46 45 45 45 44 42 41 37 34 31 26 25 27 28 27 28 28 27 26 27 28 28 28 28 27 26 25 24 24 26 28 29 28
50 48 49 48 48 48 47 46 44 44 44 44 43 42 40 38 30 27 28 26 26 26 26 25 26 25 24 25 27 28 28 27 28 29 28 29 28 26 26 28 32 30 25
48 48 48 46 45 44 43 43 42 41 40 39 38 38 37 37 28 26 26 28 26 26 26 26 26 25 27 29 29 30 30 31 30 30 29 29 29 28 27 26 26 24 23
47 46 45 44 42 41 40 40 38 37 36 36 38 36 32 31 29 29 29 29 28 28 30 30 30 29 29 28 27 26 29 30 30 31 30 30 31 30 27 25 25 25 23
44 44 43 41 39 38 36 36 36 37 38 36 33 31 28 30 30 29 29 31 31 29 28 27 26 25 24 23 23 24 26 27 29 31 31 32 33 31 26 24 23 22 22
43 42 41 38 35 34 35 37 39 38 34 31 27 33 30 29 28 26 25 26 25 25 25 25 25 25 25 26 26 26 26 26 27 31 30 32 34 33 28 25 24 23 22
39 37 34 33 33 36 37 35 31 28 32 33 32 29 26 26 26 27 26 26 25 25 25 24 25 27 28 29 29 28 27 28 27 27 28 28 30 33 29 26 25 24 22
33 33 34 35 33 32 30 26 26 29 31 30 28 28 28 27 26 24 24 22 22 23 23 24 25 25 25 26 28 29 29 30 29 28 28 28 28 30 33 32 28 26 25
34 33 30 28 28 27 27 27 23 21 23 27 25 25 26 25 25 23 21 20 21 21 22 23 23 23 24 26 29 29 30 30 29 28 27 27 27 29 32 31 32 32 28
31 30 28 24 20 17 16 19 22 24 23 21 22 23 25 23 23 21 20 20 19 20 20 21 21 23 25 25 25 26 27 29 30 28 27 28 29 29 31 32 30 29 28
28 24 20 19 19 22 21 23 24 22 24 24 24 23 22 22 20 18 18 18 18 18 19 20 20 22 21 21 21 22 23 24 25 28 29 28 27 27 29 30 28 29 27
20 23 24 22 19 21 21 19 23 21 21 19 18 19 20 18 17 16 16 16 16 16 18 17 19 18 18 18 18 19 20 20 21 22 24 30 28 26 26 26 28 28 26
20 19 19 20 20 18 17 20 23 21 21 20 19 18 17 16 15 15 15 15 14 17 17 15 15 16 16 16 16 16 17 18 19 20 20 24 27 27 26 26 27 28 26
20 23 22 23 22 22 21 20 18 19 20 21 20 19 17 15 15 14 14 14 16 15 14 14 13 14 14 15 14 15 15 16 17 17 19 20 22 23 27 27 27 26 26
23 24 25 24 19 18 18 17 17 17 17 17 17 20 17 18 13 12 15 19 16 14 14 14 13 13 14 14 13 14 14 15 14 15 16 18 19 19 19 27 28 27 26
19 19 17 16 15 15 16 16 16 17 16 16 16 16 17 13 12 10 12 15 15 15 14 13 13 12 13 13 13 13 12 12 12 13 13 15 16 16 16 19 22 27 25
14 15 15 14 15 15 15 16 15 15 15 15 14 15 12 10 10 11 16 13 15 15 11 12 14 12 12 12 11 11 11 11 10 11 13 12 12 12 13 16 18 26 26
15 13 13 13 13 15 14 13 13 13 14 14 14 12 11 12 14 14 13 12 14 12 13 11 11 11 10 10 10 9 9 8 9 11 10 10 9 10 11 13 14 16 26
14 14 13 11 13 12 13 14 14 13 13 11 11 12 12 12 13 12 12 11 11 13 11 10 9 9 10 8 9 9 10 9 9 8 8 7 8 7 8 9 13 14 16
13 13 12 11 13 12 13 14 11 11 12 12 11 11 11 10 10 10 10 11 10 9 9 8 10 6 5 8 11 10 8 8 9 11 10 7 5 5 8 8 10 12 15
14 13 12 12 12 12 12 12 11 11 11 10 9 10 8 8 8 8 8 8 8 6 8 6 4 6 9 7 7 6 9 11 7 5 5 5 5 5 6 8 9 12 14
12 12 11 11 11 11 10 10 9 9 9 8 8 6 7 7 6 5 6 3 4 6 2 3 4 3 3 4 7 9 7 6 6 7 7 6 6 6 6 7 9 10 11

GFSGL_sfc_30mbdewp_081.txt.gz
Dewpoint
53 58 58 59 58 59 58 57 56 56 54 52 48 47 46 47 48 46 45 45 45 45 45 42 39 38 37 36 35 34 32 32 30 30 30 29 28 28 28 29 31 33 33
54 58 59 59 59 59 58 57 55 53 50 48 48 48 48 47 47 46 46 46 44 42 41 38 37 36 36 36 36 34 33 32 31 30 30 29 28 28 29 28 29 30 30
55 56 58 58 58 57 55 54 52 50 49 49 48 47 47 47 48 47 45 44 43 41 39 36 36 34 32 32 32 32 32 32 32 31 30 28 27 27 25 25 25 27 30
56 57 57 57 56 54 52 51 50 49 49 48 48 48 47 47 46 45 44 42 41 39 36 33 31 29 29 28 29 29 30 31 30 29 28 27 26 26 26 25 24 27 27
56 55 54 53 52 51 50 50 49 49 48 48 47 46 46 45 44 43 42 39 31 26 27 27 26 26 27 27 26 25 26 26 27 27 28 28 27 26 25 25 26 27 30
51 50 50 49 49 49 49 48 47 46 46 46 46 46 45 43 41 39 33 27 26 25 24 25 26 25 25 26 30 30 30 29 28 28 28 28 28 28 28 27 26 28 27
49 49 48 48 47 46 45 45 45 45 45 44 44 43 42 41 33 27 28 27 26 25 24 25 27 29 30 28 26 25 25 26 29 29 29 29 29 30 30 31 30 27 27
47 47 46 45 45 45 44 44 43 42 42 42 40 39 38 33 29 28 28 28 28 30 30 29 27 26 25 25 25 24 24 25 26 27 28 30 31 31 32 31 30 28 26
46 45 45 43 42 42 42 41 40 39 37 36 38 35 31 30 29 29 31 29 28 26 27 26 26 25 25 27 26 26 27 27 27 27 28 29 32 33 34 33 29 26 23
44 43 42 42 41 41 40 38 38 38 37 34 32 31 29 27 26 26 25 25 24 24 24 25 25 26 27 28 27 26 24 24 25 26 27 28 28 29 32 33 30 26 25
43 42 41 39 37 37 38 38 37 34 33 30 28 28 27 27 28 27 26 23 21 21 22 23 24 25 26 25 25 26 26 27 29 29 30 28 28 27 26 29 31 28 26
40 36 34 34 35 37 35 31 33 32 30 28 26 28 27 27 26 24 23 22 23 21 21 22 23 22 21 23 26 28 29 29 28 27 27 26 26 26 27 29 31 29 28
34 34 35 32 32 30 28 28 30 30 29 27 25 26 26 25 24 22 21 20 20 20 20 19 19 20 22 24 24 23 24 25 25 24 26 28 26 26 28 29 31 31 30
31 29 27 23 22 22 25 27 26 26 25 24 24 26 25 24 21 20 20 19 19 19 19 19 20 21 23 21 20 20 22 21 21 22 21 23 26 28 28 30 30 30 29
24 23 23 23 22 22 25 25 23 25 26 24 23 24 23 22 20 18 17 18 18 19 18 19 19 19 19 18 18 18 18 19 18 18 20 19 21 23 28 29 29 29 27
23 23 23 23 24 22 21 22 25 23 22 21 22 22 21 20 17 16 17 16 16 16 17 18 17 15 15 16 16 16 15 15 15 16 16 17 18 20 21 28 29 27 26
22 24 24 24 24 25 26 23 20 22 24 22 20 18 18 19 16 17 16 15 15 17 16 15 13 13 13 15 15 14 13 14 15 15 14 14 17 17 18 18 26 27 26
27 27 26 26 26 25 25 25 24 23 22 22 21 20 19 17 15 15 13 16 16 17 15 15 13 13 13 14 14 13 13 13 13 13 12 13 13 15 14 15 16 25 26
26 26 25 24 23 23 22 21 20 20 18 17 18 22 20 17 15 12 10 13 17 16 15 14 12 12 12 13 13 12 12 12 11 10 10 12 12 11 11 12 14 16 18
22 22 22 21 20 19 20 19 18 17 17 17 16 18 17 13 10 9 10 15 15 15 13 11 13 13 11 11 10 10 9 9 9 8 9 11 10 9 9 10 11 12 14
21 17 17 19 19 18 18 16 14 15 14 15 15 14 12 12 12 13 14 12 13 12 11 11 11 10 10 9 10 8 8 7 7 8 9 7 7 6 7 9 9 10 14
16 16 15 15 15 13 13 14 15 14 14 13 11 12 12 12 12 12 12 11 10 11 12 11 9 8 9 10 7 6 7 7 7 8 6 6 6 6 6 5 6 8 11
15 13 12 13 14 12 11 14 12 10 12 12 12 11 11 10 9 9 9 9 10 10 9 7 7 7 6 3 5 8 9 7 7 7 7 6 5 4 3 4 6 7 8
14 13 13 13 12 12 12 11 11 12 12 10 9 9 7 6 6 7 7 6 6 5 5 5 3 4 5 6 7 5 6 6 7 9 5 4 4 4 4 3 4 6 8
12 11 10 10 10 10 9 9 9 8 8 8 7 6 5 6 6 5 4 2 2 4 2 1 1 2 1 1 1 2 5 9 7 5 6 7 5 4 3 4 5 7 8
11 10 10 10 10 8 7 6 7 7 7 7 6 5 6 5 4 1 1 2 0 -1 -2 -2 -1 -0 -0 1 4 5 4 5 6 7 8 7 6 5 4 5 5 6 6

GFSGL_sfc_30mbdewp_084.txt.gz
Dewpoint
50 54 56 57 58 57 57 57 57 56 55 54 53 50 48 47 47 47 47 47 46 44 45 45 44 43 42 40 37 36 34 33 31 31 32 31 30 29 29 30 31 31 33
52 52 55 57 58 58 57 57 56 55 55 52 51 49 48 47 48 47 46 45 44 44 45 44 43 42 39 37 36 35 34 34 33 31 32 31 30 30 29 28 28 30 30
54 54 56 58 58 58 57 56 56 55 53 51 50 48 47 47 47 47 46 46 46 45 43 42 40 38 36 35 33 32 32 32 32 31 30 30 30 28 27 26 26 26 27
54 55 55 58 58 58 56 56 56 53 51 50 50 49 48 48 48 47 46 46 45 44 42 39 37 34 31 29 29 28 29 29 29 29 28 28 28 28 27 26 25 26 26
54 55 56 56 57 56 55 54 52 51 50 49 49 48 48 48 47 47 46 44 42 39 34 30 28 27 28 28 27 27 28 27 27 27 27 27 27 27 26 27 26 26 27
55 54 53 52 52 52 50 50 50 49 49 48 47 47 46 46 46 45 43 40 38 30 26 25 25 27 31 30 27 26 25 24 24 25 25 25 25 28 28 28 28 29 28
52 50 50 49 48 48 48 48 47 47 47 46 46 46 45 43 44 42 39 31 27 25 24 26 29 27 26 25 25 25 24 25 27 26 25 25 25 27 29 28 28 27 27
49 48 49 48 47 46 46 46 45 45 45 45 45 44 44 39 37 34 30 28 30 30 29 27 26 25 24 27 27 26 26 27 27 26 26 26 27 28 28 29 30 30 31
48 47 47 46 46 45 44 44 44 44 44 43 43 40 36 34 32 30 31 29 27 26 26 26 25 24 27 28 26 24 23 23 25 27 28 28 29 29 30 31 27 24 24
46 45 45 44 44 43 43 42 42 41 38 36 34 33 30 30 30 28 26 26 24 22 23 23 24 24 25 26 25 24 25 25 26 27 28 29 29 28 29 28 28 25 23
44 43 43 43 43 42 42 41 39 35 32 31 30 29 28 28 28 27 25 22 21 21 21 21 22 23 22 22 24 26 27 27 27 26 24 25 26 28 27 27 26 26 27
43 42 42 40 38 39 37 36 34 32 29 29 28 27 27 27 26 25 24 23 22 19 19 21 22 20 20 23 26 23 21 24 24 23 23 22 22 24 28 28 27 29 31
36 35 36 35 32 33 34 33 32 31 29 29 27 26 25 24 23 22 20 20 20 19 19 19 19 20 22 24 21 18 22 21 20 19 19 18 21 21 23 27 28 28 29
28 26 26 27 26 26 27 28 29 28 27 28 29 27 25 23 21 20 20 20 19 19 19 19 20 21 22 20 19 19 20 19 18 17 15 18 17 19 19 22 23 28 28
24 23 23 24 25 24 24 24 24 27 28 26 26 26 24 23 22 19 19 19 18 19 18 18 19 19 17 17 17 16 16 15 14 14 16 13 14 15 17 17 20 21 26
24 25 26 26 25 25 25 25 26 26 25 25 25 24 24 22 18 18 19 18 17 17 18 18 16 14 14 15 15 14 13 13 13 14 12 12 12 12 14 14 16 18 20
25 26 27 28 28 28 27 26 25 26 27 26 25 21 20 19 19 21 20 17 17 16 15 15 13 12 13 14 14 13 13 13 14 12 12 10 11 11 11 11 12 14 15
28 27 26 26 26 25 25 25 24 24 23 23 25 25 25 21 20 18 15 13 17 18 17 15 13 13 13 13 13 12 11 10 10 11 8 8 10 9 8 8 9 10 12
25 24 24 24 24 24 24 23 23 22 22 22 20 22 23 20 18 13 11 15 15 15 15 13 13 12 11 11 9 9 7 6 7 6 6 7 9 7 6 6 7 8 10
22 23 23 23 22 22 21 21 19 18 18 18 17 18 17 15 13 12 13 13 12 12 11 12 12 11 9 9 8 7 6 6 6 6 6 7 4 5 5 5 6 6 7
20 19 20 19 19 17 15 15 15 15 16 15 14 14 14 13 13 13 12 11 11 11 10 10 9 8 8 8 8 5 4 4 5 6 6 4 4 4 5 5 4 4 7
16 16 16 16 14 12 13 16 12 11 13 12 12 13 12 10 9 9 9 8 8 9 10 9 7 6 7 4 3 3 3 4 5 4 4 4 5 5 4 2 2 3 5
14 13 14 13 13 12 11 11 11 11 10 10 9 8 7 5 6 6 6 6 6 5 5 4 3 3 3 3 4 4 3 2 4 5 5 5 4 3 2 2 2 2 4
11 10 11 10 9 9 8 8 8 8 8 8 7 6 4 5 4 4 2 1 1 1 -1 -2 -2 -2 -1 -0 0 0 2 3 6 7 6 5 4 4 3 3 2 2 4
9 8 8 8 6 5 5 5 5 4 4 5 5 4 4 3 3 -0 -1 -1 -2 -3 -4 -4 -4 -3 -2 -1 -1 0 2 5 4 4 5 5 5 4 3 2 1 2 4
7 6 6 5 5 4 3 3 3 3 3 3 3 3 2 2 0 -2 -1 -2 -3 -3 -4 -4 -3 -3 -2 -1 1 2 2 2 4 4 2 2 2 3 3 3 2 3 3

GFSGL_sfc_30mbdewp_087.txt.gz
Dewpoint
49 51 52 53 55 56 56 55 56 56 56 55 55 55 52 51 50 48 47 47 46 46 46 45 45 44 43 43 41 39 37 34 32 32 32 32 31 31 30 31 31 31 32
50 51 52 55 56 57 57 57 56 56 56 55 54 53 52 50 49 48 47 47 47 46 45 44 43 44 43 42 40 38 36 35 33 32 32 31 31 31 31 30 30 29 29
51 52 52 52 55 56 57 56 56 56 55 54 54 53 51 50 49 49 47 47 47 46 45 44 44 44 42 40 38 36 35 34 33 31 30 31 30 29 28 28 27 27 27
52 52 52 52 55 56 57 56 56 55 56 54 53 52 51 50 49 48 47 46 46 45 45 45 44 42 41 38 33 31 30 28 28 27 27 27 28 28 28 27 26 27 27
52 52 52 53 56 56 57 56 56 56 56 53 52 51 50 49 48 47 47 46 46 45 44 42 40 38 33 29 27 25 26 26 26 26 25 25 25 25 25 26 26 27 28
53 53 54 54 56 56 55 55 54 52 52 51 51 50 48 48 47 47 46 45 44 42 38 32 30 32 30 29 28 27 25 24 23 23 23 23 23 24 25 25 27 27 24
53 52 52 52 52 51 51 51 50 50 50 49 48 48 48 47 45 44 43 41 39 36 32 29 29 27 27 25 25 25 24 25 26 25 24 23 23 24 25 26 26 26 26
51 50 50 50 50 49 49 49 48 47 47 46 46 46 44 43 43 41 39 36 32 30 29 29 27 25 27 28 27 25 26 25 25 26 26 26 26 26 27 27 27 28 28
49 49 49 48 47 47 46 45 45 45 45 44 44 42 40 38 37 35 32 30 28 27 26 26 25 25 26 26 24 22 22 24 25 26 27 28 29 30 30 30 27 26 24
48 47 46 46 46 45 44 44 45 44 42 40 37 36 35 34 33 31 30 28 26 23 23 23 23 23 24 24 23 23 24 24 26 27 27 26 27 29 29 30 28 25 25
45 45 44 44 44 43 43 41 38 36 34 32 30 30 30 30 30 29 27 26 24 23 21 20 21 21 20 21 24 26 24 23 23 24 23 23 24 23 24 27 30 29 26
43 43 42 40 40 39 37 35 33 32 31 29 28 27 28 28 29 28 27 23 21 20 19 20 20 20 21 24 25 19 20 21 20 19 19 19 18 20 20 21 23 26 30
33 31 31 31 31 34 34 33 31 31 29 28 27 26 25 25 25 25 22 20 19 18 19 19 19 20 22 24 19 18 19 19 18 17 15 14 17 16 17 19 20 21 23
29 28 28 28 27 27 28 29 29 30 30 29 28 25 24 23 23 23 20 21 21 21 20 19 20 21 23 20 19 19 17 17 15 14 14 15 13 14 13 16 17 16 19
25 25 25 23 23 25 26 27 27 29 30 29 28 27 24 23 22 23 22 20 20 19 19 20 20 19 17 17 16 15 14 13 12 13 14 11 10 11 11 14 13 13 15
26 26 26 27 28 27 26 25 28 28 28 27 25 24 25 24 23 24 24 23 21 19 18 17 15 14 14 15 15 14 12 12 12 11 11 10 8 9 10 9 10 11 11
28 29 28 28 28 27 27 26 24 26 27 27 26 26 25 23 24 24 22 21 21 22 18 17 14 13 14 15 14 12 12 12 11 11 10 7 8 9 8 7 7 8 8
25 25 25 25 24 24 24 24 24 23 22 23 26 26 25 24 22 20 18 18 17 18 18 15 13 13 13 12 11 10 10 7 6 8 6 5 6 6 5 4 5 5 6
24 23 23 23 23 23 23 22 21 20 20 19 21 19 19 20 18 17 16 15 14 13 13 12 12 11 10 10 8 8 6 5 4 4 5 4 5 3 4 4 4 4 4
22 22 22 21 19 18 17 16 16 16 17 16 15 14 16 14 12 12 12 11 10 10 11 11 11 10 7 7 6 4 4 2 2 3 4 4 3 2 2 3 3 3 2
17 17 16 14 13 15 16 14 13 13 13 13 13 13 12 11 10 9 9 8 7 7 7 7 8 7 6 6 5 3 2 1 1 3 3 3 2 1 3 4 3 2 2
15 15 14 14 13 12 12 11 10 9 9 9 10 10 7 6 7 7 6 5 5 6 6 6 4 5 5 4 3 1 1 1 2 1 1 1 3 4 3 2 1 1 1
12 11 11 10 9 8 7 8 7 7 7 7 7 6 5 4 4 4 3 2 1 0 -0 -1 -3 -3 -3 -3 -2 -0 -0 -0 0 2 2 2 3 2 1 0 0 0 0
9 8 7 6 5 4 3 3 3 4 4 4 3 4 3 2 2 1 -1 -3 -3 -4 -5 -5 -5 -4 -3 -3 -3 -2 -1 1 3 4 4 2 2 2 2 2 2 1 -0
6 5 4 3 2 1 0 0 0 0 0 1 0 0 1 1 -1 -3 -3 -3 -3 -4 -4 -5 -5 -5 -4 -4 -3 -3 -1 1 1 1 2 2 1 1 0 1 2 1 0
3 2 1 1 0 -0 -1 -1 -2 -2 -2 -2 -2 -2 -2 -2 -2 -3 -4 -3 -4 -4 -5 -6 -5 -5 -5 -4 -3 -0 -1 -1 -1 -1 -0 -0 -1 -1 0 1 2 2 1

GFSGL_sfc_30mbdewp_090.txt.gz
Dewpoint
50 50 50 49 50 50 50 51 53 54 55 55 55 55 55 53 52 51 50 49 49 48 47 46 46 46 45 44 43 40 38 36 35 34 32 32 31 31 32 32 32 32 32
49 49 49 50 50 51 51 52 53 54 55 55 55 55 55 53 51 51 51 50 50 48 47 46 46 46 45 44 42 41 39 37 35 33 33 32 32 32 31 31 31 30 30
50 49 49 51 52 52 53 54 55 56 55 55 56 55 55 53 53 52 53 51 49 48 47 47 46 45 44 43 42 40 39 37 35 33 32 31 31 30 29 28 28 28 28
49 49 49 50 52 53 54 55 56 56 56 56 55 55 54 53 53 52 51 50 49 48 48 46 46 45 44 42 41 39 38 36 32 31 29 28 28 28 28 27 26 27 26
49 48 48 50 52 52 54 55 56 56 56 56 55 55 53 52 51 50 50 49 47 46 46 45 44 44 43 41 38 36 34 29 26 25 25 26 26 25 25 25 25 25 27
51 50 50 51 52 52 54 54 56 56 55 55 53 52 51 51 51 49 49 48 46 44 42 40 38 37 36 34 32 30 28 27 25 25 24 23 23 24 24 24 24 24 23
52 52 52 52 52 54 54 55 55 54 53 52 52 51 51 50 49 47 47 46 43 39 36 34 33 33 30 29 27 25 25 25 25 24 23 23 23 24 25 24 25 25 24
52 51 51 52 52 52 52 52 51 50 49 49 48 47 45 42 42 41 40 38 37 35 35 33 30 28 28 27 26 25 25 25 23 24 25 25 26 26 27 27 27 27 26
49 50 50 51 50 49 48 47 46 46 45 43 42 41 39 36 37 36 35 33 31 30 29 28 27 27 28 28 25 22 21 23 26 27 28 28 28 28 29 29 26 27 24
47 47 47 47 46 45 45 44 44 42 39 37 35 35 34 33 33 32 30 28 26 26 27 27 27 27 25 24 23 22 22 25 23 24 22 22 23 25 25 28 28 26 25
45 44 44 44 43 43 40 39 37 34 32 31 29 29 30 30 31 31 30 29 28 27 25 23 22 22 23 24 26 26 24 22 20 19 18 20 22 19 22 22 20 21 21
38 37 37 38 38 36 35 34 33 31 30 28 28 27 27 28 29 28 28 27 27 25 24 22 22 23 24 26 25 22 19 19 19 16 16 15 14 16 16 16 18 21 22
34 33 32 32 32 33 32 32 31 30 29 28 26 25 24 25 26 26 26 24 23 22 22 23 23 23 24 25 21 20 19 18 16 15 13 12 14 13 12 13 13 17 16
30 29 28 28 28 29 29 30 30 30 29 28 26 25 24 24 23 24 23 23 24 23 23 23 22 22 24 22 22 21 19 18 16 15 13 13 11 10 9 10 11 12 12
24 24 26 27 27 27 27 28 27 28 30 28 27 26 24 22 22 24 24 23 23 22 22 22 21 21 20 19 19 18 18 17 15 14 12 10 8 7 7 9 9 8 9
28 29 29 29 28 26 26 26 29 28 28 27 27 26 25 25 25 25 24 24 24 23 20 18 17 16 16 16 16 15 15 14 12 10 10 9 7 6 6 7 6 6 6
27 27 26 26 26 25 25 25 23 25 26 26 26 25 25 24 24 22 21 21 21 20 18 18 14 13 14 15 14 13 11 11 10 8 9 7 6 6 6 4 3 3 3
23 23 23 23 22 22 22 22 21 21 20 21 21 22 22 20 19 18 17 16 16 16 15 13 12 12 12 11 10 9 9 7 5 5 5 5 4 5 4 3 3 3 3
22 21 21 19 18 18 18 17 18 17 16 16 15 15 16 16 15 14 12 11 10 10 10 10 12 10 9 8 7 5 4 4 2 1 2 2 3 3 2 2 2 2 2
16 15 14 15 15 14 14 13 13 13 13 11 10 10 11 9 8 8 8 6 6 7 6 7 7 7 5 5 4 3 2 2 1 1 2 2 2 1 1 1 2 2 1
14 13 13 13 13 12 11 10 9 9 9 9 8 8 7 6 6 6 5 4 3 4 3 4 5 4 4 4 3 1 -0 -1 -1 0 2 2 1 -0 1 2 2 2 1
12 12 11 9 9 8 8 7 6 6 6 6 6 6 4 3 3 3 2 -1 -2 -1 0 -0 -2 -1 -1 -1 -2 -2 -3 -3 -2 -2 -2 -0 1 2 2 1 0 0 0
8 7 6 6 5 3 2 3 2 3 2 1 1 1 1 -1 -1 -0 -2 -4 -3 -4 -4 -4 -5 -5 -4 -4 -5 -4 -5 -3 -2 -0 -0 0 1 1 0 -1 -1 -1 -0
5 5 4 2 1 -0 -1 -2 -1 -0 -1 -2 -2 -2 -2 -2 -3 -4 -4 -5 -5 -5 -6 -6 -6 -6 -6 -6 -6 -4 -3 -1 0 1 1 -0 -0 -0 0 -0 -0 -0 0
2 1 -0 -1 -2 -3 -3 -3 -4 -5 -5 -5 -5 -5 -4 -5 -4 -6 -7 -7 -6 -6 -7 -7 -8 -7 -7 -7 -7 -6 -4 -2 -0 -1 -1 -1 -1 -1 -2 -2 -1 -0 0
0 -1 -2 -3 -4 -4 -5 -6 -7 -7 -8 -8 -8 -8 -9 -9 -7 -9 -9 -8 -8 -8 -8 -8 -8 -8 -8 -8 -6 -3 -2 -2 -2 -2 -1 -2 -2 -3 -2 -2 -1 -0 0

GFSGL_sfc_30mbdewp_093.txt.gz
Dewpoint
51 51 51 51 50 50 50 50 50 51 52 52 53 54 54 55 55 55 55 54 52 51 50 50 49 49 47 46 47 46 43 43 43 40 38 36 33 33 32 35 36 35 35
51 51 51 52 51 51 51 51 51 51 53 53 53 53 54 55 55 53 53 53 51 51 50 49 49 49 47 47 47 45 43 40 39 39 36 33 33 35 36 36 34 31 32
51 51 51 51 51 51 51 51 51 52 52 52 53 53 54 55 54 55 54 54 52 51 51 50 49 49 47 47 47 46 44 40 40 38 35 34 35 35 34 33 32 31 31
51 50 50 50 51 50 51 51 52 52 52 53 54 54 55 56 56 55 54 53 52 52 53 51 49 49 48 47 46 44 42 40 37 36 34 33 33 32 30 28 28 28 27
51 51 50 50 51 51 52 52 53 54 55 55 56 56 56 56 55 54 53 53 52 51 50 50 49 49 48 47 44 41 40 37 35 34 31 30 31 28 29 27 26 24 22
51 50 50 50 51 52 53 53 54 55 56 56 56 56 56 55 54 52 52 51 51 49 48 42 42 41 40 39 40 39 38 36 33 30 33 31 31 30 27 25 23 20 15
51 50 50 50 50 51 52 53 53 54 55 56 55 55 53 51 50 50 47 47 46 42 38 38 36 34 34 33 32 31 30 30 31 33 31 30 30 27 23 21 20 20 19
52 52 52 52 52 53 53 54 53 51 50 48 46 45 42 38 40 43 41 38 36 35 35 33 32 31 31 31 30 30 30 30 30 30 29 26 25 26 27 26 25 25 25
51 51 52 52 51 49 48 47 46 45 42 40 39 37 35 34 34 35 34 32 30 29 30 30 30 29 30 30 29 27 27 27 29 29 29 29 28 28 28 27 24 22 21
47 47 47 47 46 45 44 42 40 37 35 34 32 32 32 32 32 31 30 29 28 27 27 27 27 27 27 27 25 24 23 25 25 25 25 23 24 24 23 23 24 22 20
44 44 44 43 41 40 39 38 35 33 31 30 29 29 29 30 31 31 30 28 27 26 25 24 25 26 26 26 27 26 26 26 22 20 20 19 20 19 20 22 20 20 19
39 38 37 36 36 36 35 33 32 30 29 28 27 26 27 28 28 28 28 28 28 26 24 24 25 25 25 27 26 25 23 23 23 19 17 19 19 20 20 17 17 18 17
33 32 31 31 31 32 32 31 30 29 28 27 26 24 24 24 25 26 26 25 25 24 24 24 24 24 25 26 25 24 21 21 20 19 18 18 18 18 16 15 13 11 12
30 30 29 29 29 29 29 29 30 30 28 27 26 24 24 24 24 25 25 25 25 24 24 24 23 24 25 24 24 22 21 19 18 17 16 16 16 15 12 9 8 8 8
29 28 28 27 27 27 27 27 26 28 28 27 27 26 25 23 23 25 24 23 22 22 22 21 20 19 20 20 20 19 18 17 16 16 14 13 12 8 6 6 7 7 6
29 28 28 27 26 25 25 25 26 25 25 25 25 25 25 25 24 22 21 20 20 20 18 17 16 16 15 14 15 15 14 13 12 10 10 8 7 6 5 5 5 5 5
26 25 25 25 24 24 24 23 21 22 21 23 23 22 21 20 18 17 17 16 15 14 13 13 13 13 13 13 12 11 10 11 9 6 6 5 5 4 4 4 3 3 3
23 23 22 21 21 21 20 20 20 19 17 16 16 17 16 15 14 12 11 10 9 9 8 9 9 10 8 7 7 6 5 5 5 4 4 3 3 4 3 2 2 2 2
19 18 18 17 17 16 16 15 14 13 12 11 10 10 9 9 9 8 7 6 5 4 4 4 5 5 4 4 4 4 4 3 3 3 2 2 3 3 1 1 1 2 2
15 15 13 12 12 11 11 11 10 9 8 8 7 6 5 5 5 5 5 4 3 2 2 1 1 1 2 2 2 2 1 1 0 0 0 1 2 2 1 1 1 1 1
10 11 11 9 8 8 8 7 7 7 6 5 6 6 5 3 3 3 2 2 2 1 1 1 0 0 -1 -1 -1 -1 -2 -2 -2 -2 -1 -1 -1 -0 0 1 1 1 1
9 8 7 6 6 6 5 5 4 4 3 2 3 3 2 2 1 1 0 1 1 0 -0 -1 -2 -2 -3 -3 -3 -3 -4 -3 -3 -2 -2 -1 -1 -0 1 1 0 1 1
6 5 4 3 2 2 2 2 2 1 1 1 1 0 0 -0 -1 -2 -2 -2 -2 -2 -2 -3 -3 -4 -4 -4 -4 -4 -4 -4 -3 -2 -2 -1 -1 -1 -0 -0 -0 -0 0
4 2 1 1 1 0 -0 -0 -1 -2 -2 -2 -2 -2 -3 -3 -3 -3 -4 -4 -4 -4 -4 -5 -5 -6 -6 -6 -5 -4 -4 -3 -2 -1 -1 -2 -2 -2 -1 -1 -1 -0 0
2 1 -0 -1 -1 -1 -2 -3 -3 -3 -4 -4 -5 -5 -5 -5 -5 -5 -6 -6 -6 -7 -7 -7 -6 -7 -7 -7 -6 -5 -3 -3 -2 -2 -1 -1 -2 -2 -2 -1 -1 -1 0
-1 -1 -2 -2 -2 -3 -4 -5 -5 -5 -6 -5 -6 -6 -6 -7 -7 -7 -8 -8 -9 -9 -8 -7 -7 -7 -7 -6 -5 -3 -3 -3 -3 -2 -2 -2 -2 -2 -1 -1 -1 0 0

GFSGL_sfc_30mbdewp_096.txt.gz
Dewpoint
52 53 52 52 52 51 50 50 50 50 50 50 50 51 51 51 51 52 52 52 52 53 54 55 55 55 54 52 51 49 48 48 46 47 49 45 41 40 34 34 34 37 37
51 51 52 52 52 51 51 50 50 49 50 51 51 50 50 50 51 52 53 53 53 53 55 54 53 53 52 52 50 49 48 48 47 46 48 41 41 38 36 36 35 34 35
51 51 51 52 52 52 52 52 51 52 51 51 51 51 51 51 51 52 54 54 54 54 55 54 53 52 51 50 50 48 48 48 47 46 46 39 37 37 37 37 38 37 34
51 51 51 51 52 52 52 52 52 52 51 51 51 51 51 51 51 52 54 54 55 56 55 54 53 52 50 50 50 48 48 47 47 44 41 36 36 37 37 37 37 38 37
51 51 50 51 51 52 52 52 52 52 52 51 51 51 52 53 54 54 55 56 55 54 53 53 53 52 51 50 49 48 47 44 40 39 36 35 35 34 34 37 35 36 36
50 50 51 51 51 51 51 51 51 52 52 52 52 53 54 56 55 55 55 55 53 51 51 45 41 40 38 39 40 38 39 38 36 35 33 33 32 32 32 33 33 33 31
52 51 51 51 51 51 51 52 52 53 54 54 55 54 48 42 42 49 48 46 42 39 38 37 35 34 34 33 32 32 32 32 33 33 32 31 31 32 33 32 31 28 25
51 51 51 51 51 51 51 52 53 51 48 45 41 39 37 35 37 38 37 35 33 32 32 32 31 30 32 32 31 29 29 30 30 31 31 31 31 30 29 28 29 29 27
52 52 53 53 53 50 48 46 44 40 37 35 35 34 33 32 33 33 32 30 28 28 29 29 28 28 29 30 29 28 28 28 31 31 30 30 30 30 30 30 27 24 23
47 47 46 46 45 42 40 37 36 34 33 32 31 32 32 31 32 31 30 28 27 26 26 26 27 27 27 28 28 28 26 27 28 28 28 27 25 25 23 23 23 24 24
41 40 39 39 38 37 35 34 32 31 29 29 28 29 29 30 30 30 29 28 27 26 25 24 25 26 26 26 27 28 28 28 26 23 23 24 25 26 24 25 27 24 22
36 35 35 35 34 33 32 31 30 29 28 28 27 26 26 28 28 28 28 28 28 27 26 27 26 25 25 26 27 26 24 25 25 24 23 22 23 23 24 24 23 23 23
34 33 32 31 31 32 31 30 29 29 28 27 25 24 24 25 26 27 26 25 25 25 24 24 24 24 25 26 25 23 23 22 22 21 21 20 20 21 19 19 18 18 18
32 31 31 30 29 28 28 29 29 28 27 26 25 25 26 25 25 25 24 24 23 22 23 22 23 23 24 23 24 23 21 19 17 17 17 15 17 15 13 12 11 10 9
30 29 28 28 27 26 26 26 26 26 28 28 27 26 24 22 22 22 21 20 20 20 21 19 18 17 16 17 17 20 18 15 15 16 14 14 12 11 11 9 9 8 8
29 29 29 28 27 25 23 23 25 24 23 23 24 22 21 20 18 18 18 15 15 15 16 14 15 14 14 13 15 15 14 15 15 8 10 10 9 8 7 6 5 7 7
28 27 27 27 27 25 23 21 19 19 18 19 18 17 16 15 13 12 12 12 10 11 10 10 10 12 10 8 7 8 8 7 6 8 7 6 7 6 6 6 5 7 5
25 25 24 24 23 23 22 22 20 19 17 15 12 12 11 11 10 9 8 6 6 5 4 4 5 5 4 2 2 4 4 5 5 5 4 5 6 5 4 4 4 5 5
22 21 21 20 19 18 17 16 15 14 13 11 10 9 7 7 6 6 5 5 4 2 1 1 2 2 2 2 3 4 4 4 3 3 3 4 4 3 3 3 2 3 3
15 15 15 14 14 13 12 11 10 9 8 7 6 5 5 5 6 5 5 5 4 3 2 1 1 1 2 2 2 2 2 1 1 0 1 2 2 3 2 2 2 2 2
11 10 9 8 8 9 9 8 7 7 6 5 5 4 3 4 4 4 3 3 3 2 2 2 2 2 1 1 -0 1 0 0 -0 -0 0 0 1 0 1 3 3 3 2
8 7 7 7 7 7 6 5 5 4 3 3 3 3 1 4 3 2 2 2 3 2 1 1 1 1 -0 -0 -0 -0 -1 -1 -1 -0 -0 -1 -0 1 2 2 2 2 2
6 5 4 4 4 4 4 4 4 4 3 3 2 2 2 2 2 1 1 1 1 1 1 -0 -0 -1 -1 -1 -1 -1 -1 -1 -0 0 -0 -0 -0 0 1 1 1 1 1
5 4 3 4 4 4 4 4 2 -0 1 2 2 2 1 1 1 1 0 -0 -1 -1 -1 -2 -2 -3 -3 -3 -1 -1 -1 -0 0 -0 0 1 -0 0 1 0 0 1 1
5 4 4 4 3 3 3 2 2 2 2 1 1 1 -0 -0 -1 -1 -1 -2 -3 -3 -3 -3 -2 -2 -2 -2 -2 -1 -1 -1 -1 -1 -1 0 0 0 0 1 1 1 1
3 3 3 3 2 2 2 1 1 1 0 -0 -0 -0 -1 -2 -2 -2 -3 -3 -4 -4 -3 -2 -2 -2 -2 -1 -1 -1 -1 -2 -2 -2 -1 -0 0 0 1 1 1 1 1

GFSGL_sfc_30mbdewp_099.txt.gz
Dewpoint
52 53 54 52 51 52 52 53 52 52 52 51 52 52 52 52 53 53 54 54 53 53 54 54 54 54 55 55 55 54 53 52 49 50 50 50 48 47 47 46 46 43 41
51 52 53 53 52 51 51 52 53 52 52 51 51 50 51 51 52 52 53 52 52 53 53 54 54 54 55 55 55 54 53 52 50 48 49 49 50 50 50 46 44 40 39
50 51 52 53 52 52 52 53 53 52 52 52 51 51 51 51 52 53 53 53 53 53 54 54 54 54 54 54 54 52 52 51 50 48 47 49 49 45 45 42 43 40 38
49 50 51 51 52 52 52 53 53 53 52 51 52 52 52 52 51 51 51 52 53 53 55 54 54 55 55 54 53 51 51 49 48 47 46 44 39 38 39 38 38 40 40
50 50 50 51 52 52 52 52 53 53 52 52 52 51 51 51 51 51 51 52 53 54 55 51 40 38 37 38 43 47 48 47 46 44 40 36 36 35 36 37 36 36 38
51 51 50 51 51 52 52 53 52 52 52 52 51 51 52 48 43 48 52 53 47 44 42 37 35 35 34 33 33 32 32 36 37 37 34 34 33 33 33 33 32 31 31
50 51 51 51 51 51 52 52 52 52 52 47 45 42 38 37 38 40 39 37 35 34 34 33 32 33 33 32 30 30 30 31 31 32 31 30 31 31 32 31 31 31 31
51 50 50 51 51 51 51 50 46 43 40 38 36 35 34 34 34 34 33 32 31 30 30 30 30 31 31 30 29 29 29 30 31 31 31 31 32 32 32 32 31 31 32
51 51 51 52 52 48 44 40 38 35 34 33 34 33 32 32 32 32 30 29 28 28 29 29 28 28 28 30 29 29 29 29 30 30 30 30 30 30 30 30 28 28 27
48 46 46 44 41 38 36 34 33 32 31 31 31 31 32 31 32 31 30 29 27 27 26 26 27 26 26 27 28 29 28 29 28 28 29 29 28 29 27 26 26 24 24
40 39 37 37 35 34 33 32 31 30 29 28 28 28 29 29 29 30 30 29 28 26 26 25 25 25 25 26 27 24 24 24 26 25 25 25 26 27 28 27 28 26 22
36 35 34 34 33 32 31 31 30 29 28 27 26 26 27 27 26 26 25 27 28 27 26 24 23 24 25 25 25 24 23 24 24 22 21 22 23 22 24 19 20 21 21
33 32 32 32 32 31 30 29 29 28 27 27 26 26 26 27 28 27 25 24 24 23 23 23 21 22 22 25 23 21 22 21 19 16 17 19 17 17 16 16 15 15 15
31 30 30 29 28 28 28 29 29 28 27 27 27 25 24 23 22 23 22 22 21 20 23 22 22 20 23 23 20 22 24 20 16 19 17 13 13 13 12 13 13 11 13
30 29 28 27 26 26 26 26 25 27 27 26 25 24 22 20 20 18 17 17 17 17 19 16 15 14 13 11 12 13 13 14 14 11 9 9 9 8 8 10 10 8 9
30 29 27 26 24 22 22 22 22 21 20 21 21 19 17 16 15 15 14 12 12 12 13 11 12 12 10 7 6 6 6 5 6 4 7 7 7 7 7 7 7 10 9
29 29 28 28 26 23 21 18 17 17 17 16 15 14 13 12 11 10 9 9 7 7 8 8 8 7 6 3 2 3 3 4 4 5 5 5 6 5 8 6 6 8 6
30 30 29 27 26 25 24 23 21 18 16 13 11 10 9 9 8 8 8 6 6 5 3 4 5 4 3 2 2 3 4 5 6 4 4 6 6 6 5 5 5 6 5
26 25 24 23 22 22 20 18 17 15 12 10 9 9 8 8 8 8 7 7 5 4 2 2 3 3 3 3 5 5 5 5 4 5 4 5 5 4 4 3 3 4 5
19 19 19 18 17 15 13 12 11 11 9 8 7 6 8 8 8 7 7 6 5 4 4 3 3 3 4 3 4 4 3 2 2 2 2 3 5 4 3 4 5 5 4
12 11 12 11 11 11 11 10 10 9 8 7 5 4 5 6 6 5 5 5 4 4 4 4 3 3 3 2 1 2 2 2 1 1 2 2 3 3 3 4 5 5 4
10 10 10 10 10 10 9 8 8 7 6 6 6 4 4 6 5 4 4 5 5 4 4 3 3 3 2 2 2 1 1 1 2 2 2 2 2 2 4 4 4 4 4
8 8 7 7 8 8 8 8 8 7 6 6 5 5 5 5 5 4 4 4 3 3 3 2 2 1 1 1 1 2 2 2 2 3 2 2 1 2 3 3 4 4 3
9 8 7 9 8 8 8 6 4 3 5 6 6 5 4 4 4 3 3 2 1 1 1 1 1 0 0 0 1 1 1 2 2 2 2 2 1 1 3 2 2 3 4
9 9 8 8 7 7 6 6 6 6 5 5 4 4 3 3 2 2 2 1 0 0 -0 0 2 1 1 0 1 2 4 3 1 1 0 1 1 1 2 3 3 3 4
7 7 7 7 7 6 6 5 5 4 4 4 3 3 3 2 1 1 1 -0 -2 -2 -0 0 0 1 0 1 2 3 1 0 1 2 2 1 1 2 3 4 2 2 2

GFSGL_sfc_30mbdewp_102.txt.gz
Dewpoint
55 55 54 54 54 52 53 55 55 55 55 55 55 55 54 53 54 53 53 52 52 53 54 55 55 55 56 56 56 55 54 53 51 50 51 52 52 51 49 48 48 48 49
54 54 53 53 54 53 53 51 52 55 54 53 55 54 53 53 53 53 53 53 54 54 54 54 54 54 55 55 55 55 55 54 52 51 52 51 51 51 49 48 48 47 47
53 54 54 53 53 53 53 54 54 54 54 53 53 53 52 52 52 53 53 53 53 53 53 53 53 54 54 55 55 55 55 54 53 51 50 50 49 47 47 46 44 45 43
52 53 54 54 54 53 53 53 53 54 53 53 53 52 52 52 52 52 52 53 53 54 53 46 42 41 41 42 46 46 48 49 50 49 48 47 42 40 39 40 40 40 40
51 52 53 54 54 54 54 54 54 54 53 53 53 53 53 53 50 49 53 53 51 46 39 38 36 35 34 34 36 35 37 40 40 40 38 36 35 35 35 36 37 35 37
50 51 52 54 54 54 55 55 55 54 54 54 53 49 43 40 40 48 48 43 40 39 35 34 34 35 33 33 32 32 32 34 34 34 32 32 31 31 32 32 32 32 32
51 51 51 52 53 54 54 54 54 52 46 42 39 38 36 35 35 36 36 35 34 33 33 32 32 32 32 31 31 31 31 31 31 32 30 29 30 30 31 31 31 31 31
52 52 52 52 52 53 52 45 42 39 37 35 34 34 33 33 33 33 32 31 30 30 30 30 29 29 30 31 31 30 30 30 30 30 30 29 30 30 30 30 29 30 30
51 51 52 52 47 43 40 38 36 35 33 33 32 32 31 31 32 31 30 29 28 28 28 29 28 27 27 29 29 29 29 29 30 30 30 30 29 30 29 28 26 24 22
46 45 42 41 39 37 35 34 33 32 31 30 30 30 31 31 32 31 30 28 27 27 27 26 26 26 26 28 25 24 22 23 27 26 26 25 26 27 29 28 26 22 22
39 38 36 35 34 33 32 31 30 29 29 28 28 28 28 28 30 30 30 29 28 27 26 24 25 26 26 25 23 23 23 25 25 23 23 24 25 25 23 20 20 20 19
36 34 34 33 32 32 31 30 29 28 27 27 26 26 27 27 26 25 26 26 26 24 23 23 24 26 24 23 23 23 23 22 19 19 20 21 18 18 18 18 19 19 19
33 33 32 32 31 31 30 29 29 28 27 27 26 26 26 27 25 24 23 23 25 25 24 23 22 22 23 24 23 21 20 19 18 15 14 12 12 12 12 12 12 13 12
30 30 29 29 28 28 29 29 29 28 27 25 24 22 21 20 19 20 20 20 20 22 22 19 17 17 15 15 15 14 15 13 13 10 9 10 10 9 9 9 9 7 8
28 27 26 25 24 24 24 24 24 25 25 23 22 21 19 19 17 15 14 16 16 17 18 17 15 13 11 10 9 8 9 9 8 7 8 8 7 7 7 8 7 7 6
27 26 25 24 22 21 20 20 23 22 21 19 18 17 16 14 14 13 10 10 10 13 13 12 12 11 9 7 7 7 7 8 8 8 7 6 7 6 6 6 5 6 6
26 24 24 23 21 20 20 18 16 17 15 14 13 12 12 11 11 9 9 9 7 9 10 10 9 8 6 6 6 6 6 7 8 6 6 7 6 6 5 5 5 4 4
30 29 28 27 25 22 20 19 17 15 13 12 12 11 11 10 10 10 9 8 7 6 6 7 7 7 5 5 7 7 7 8 7 6 6 6 5 5 5 4 3 3 4
27 27 27 25 24 23 22 20 17 16 14 12 12 12 12 11 10 9 9 9 7 6 5 6 6 7 7 7 7 7 6 5 5 5 5 4 5 5 3 3 4 4 3
23 21 19 18 17 16 16 15 14 12 10 9 9 10 11 10 9 9 9 8 7 7 7 6 6 7 7 6 5 5 4 4 4 4 4 4 4 3 2 3 3 4 3
18 16 15 15 15 14 14 13 13 11 7 6 7 6 9 9 8 8 8 7 7 7 7 6 5 6 5 4 4 4 3 4 4 5 4 4 3 2 3 3 4 2 2
15 14 14 13 13 12 12 12 11 10 10 10 8 7 8 9 8 7 7 7 6 6 6 5 5 4 4 5 4 3 4 3 4 4 3 1 1 1 2 2 1 3 3
12 12 12 12 12 12 12 11 11 10 9 9 8 8 7 8 7 6 7 5 5 5 5 4 3 3 4 3 4 5 4 3 4 4 3 1 0 -0 -0 1 2 0 1
13 12 12 12 11 10 9 7 7 7 8 8 8 7 6 6 6 6 5 4 3 3 3 3 4 4 3 3 3 2 3 6 4 1 1 -0 -1 0 0 -0 0 2 4
12 12 11 10 10 10 9 9 9 8 8 7 6 6 5 4 5 4 5 3 2 0 1 3 4 3 3 2 2 5 6 1 1 1 2 2 1 0 1 1 2 3 1
11 11 11 11 10 10 9 8 7 7 6 6 6 5 5 4 3 2 3 2 -1 -1 2 1 2 1 2 4 3 5 3 4 5 2 2 2 1 1 1 1 -0 1 2